Time,TemperatureF,DewpointF,PressureIn,WindDirection,WindDirectionDegrees,WindSpeedMPH,WindSpeedGustMPH,Humidity,HourlyPrecipIn,Conditions,Clouds,dailyrainin,SoftwareType,DateUTC
2013-06-12 00:00:00,72.7,67.6,29.79,South,188,0.0,0.0,84,0.00,,,0.00,Wunderground v.1.15,2013-06-12 05:00:00,
2013-06-12 00:01:00,72.6,67.5,29.79,South,188,0.0,0.0,84,0.00,,,0.00,Wunderground v.1.15,2013-06-12 05:01:00,
2013-06-12 00:02:00,72.6,67.8,29.79,South,188,0.0,0.0,85,0.00,,,0.00,Wunderground v.1.15,2013-06-12 05:02:00,
2013-06-12 00:03:00,72.5,67.7,29.79,South,188,0.0,0.0,85,0.00,,,0.00,Wunderground v.1.15,2013-06-12 05:03:00,
2013-06-12 00:09:00,72.3,67.9,29.79,South,188,0.0,0.0,86,0.00,,,0.00,Wunderground v.1.15,2013-06-12 05:09:00,
2013-06-12 00:11:00,72.2,67.8,29.79,South,188,0.0,0.0,86,0.00,,,0.00,Wunderground v.1.15,2013-06-12 05:11:00,
2013-06-12 00:12:00,72.1,67.7,29.79,South,188,0.0,0.0,86,0.00,,,0.00,Wunderground v.1.15,2013-06-12 05:12:00,
2013-06-12 00:13:00,72.1,67.7,29.79,South,188,0.0,0.0,86,0.00,,,0.00,Wunderground v.1.15,2013-06-12 05:13:00,
2013-06-12 00:14:00,72.0,67.6,29.79,South,188,0.0,0.0,86,0.00,,,0.00,Wunderground v.1.15,2013-06-12 05:14:00,
2013-06-12 00:18:00,71.8,67.7,29.79,South,188,0.0,2.0,87,0.00,,,0.00,Wunderground v.1.15,2013-06-12 05:18:00,
2013-06-12 00:19:00,71.8,67.7,29.79,South,188,0.0,2.0,87,0.00,,,0.00,Wunderground v.1.15,2013-06-12 05:19:00,
2013-06-12 00:21:00,71.7,67.6,29.79,South,188,0.0,0.0,87,0.00,,,0.00,Wunderground v.1.15,2013-06-12 05:21:00,
2013-06-12 00:24:00,71.6,67.5,29.79,South,188,0.0,2.0,87,0.00,,,0.00,Wunderground v.1.15,2013-06-12 05:24:00,
2013-06-12 00:25:00,71.6,67.9,29.79,South,188,0.0,2.0,88,0.00,,,0.00,Wunderground v.1.15,2013-06-12 05:25:00,
2013-06-12 00:26:00,71.5,67.8,29.80,South,188,0.0,2.0,88,0.00,,,0.00,Wunderground v.1.15,2013-06-12 05:26:00,
2013-06-12 00:28:00,71.5,67.8,29.80,South,188,0.0,4.0,88,0.00,,,0.00,Wunderground v.1.15,2013-06-12 05:28:00,
2013-06-12 00:30:00,71.5,67.4,29.81,NNE,32,1.0,6.0,87,0.00,,,0.00,Wunderground v.1.15,2013-06-12 05:30:00,
2013-06-12 00:32:00,71.4,67.3,29.82,NNE,13,2.0,6.0,87,0.00,,,0.00,Wunderground v.1.15,2013-06-12 05:32:00,
2013-06-12 00:37:00,71.4,67.7,29.83,North,5,4.0,6.0,88,0.00,,,0.00,Wunderground v.1.15,2013-06-12 05:37:00,
2013-06-12 00:38:00,71.4,67.7,29.83,NNW,342,5.0,6.0,88,0.00,,,0.00,Wunderground v.1.15,2013-06-12 05:38:00,
2013-06-12 00:40:00,71.5,67.4,29.83,North,350,4.0,4.0,87,0.00,,,0.00,Wunderground v.1.15,2013-06-12 05:40:00,
2013-06-12 00:42:00,71.6,67.5,29.83,North,350,3.0,4.0,87,0.00,,,0.00,Wunderground v.1.15,2013-06-12 05:42:00,
2013-06-12 00:43:00,71.7,67.6,29.83,North,351,3.0,4.0,87,0.00,,,0.00,Wunderground v.1.15,2013-06-12 05:43:00,
2013-06-12 00:47:00,71.8,67.7,29.83,North,351,1.0,4.0,87,0.00,,,0.00,Wunderground v.1.15,2013-06-12 05:47:00,
2013-06-12 00:49:00,71.8,67.7,29.83,North,351,1.0,4.0,87,0.00,,,0.00,Wunderground v.1.15,2013-06-12 05:49:00,
2013-06-12 00:52:00,71.9,67.5,29.83,North,351,0.0,0.0,86,0.00,,,0.00,Wunderground v.1.15,2013-06-12 05:52:00,
2013-06-12 00:53:00,71.9,67.5,29.82,North,351,0.0,0.0,86,0.00,,,0.00,Wunderground v.1.15,2013-06-12 05:53:00,
2013-06-12 00:55:00,71.9,67.5,29.82,North,351,0.0,0.0,86,0.00,,,0.00,Wunderground v.1.15,2013-06-12 05:55:00,
2013-06-12 00:56:00,71.9,67.5,29.82,North,351,0.0,0.0,86,0.00,,,0.00,Wunderground v.1.15,2013-06-12 05:56:00,
2013-06-12 01:02:00,71.8,67.4,29.82,North,351,0.0,0.0,86,0.00,,,0.00,Wunderground v.1.15,2013-06-12 06:02:00,
2013-06-12 01:03:00,71.8,67.4,29.82,North,351,0.0,0.0,86,0.00,,,0.00,Wunderground v.1.15,2013-06-12 06:03:00,
2013-06-12 01:04:00,71.8,67.4,29.82,North,351,0.0,0.0,86,0.00,,,0.00,Wunderground v.1.15,2013-06-12 06:04:00,
2013-06-12 01:05:00,71.7,67.3,29.82,North,351,0.0,0.0,86,0.00,,,0.00,Wunderground v.1.15,2013-06-12 06:05:00,
2013-06-12 01:06:00,71.7,67.3,29.82,North,351,0.0,0.0,86,0.00,,,0.00,Wunderground v.1.15,2013-06-12 06:06:00,
2013-06-12 01:09:00,71.6,67.2,29.82,North,351,0.0,0.0,86,0.00,,,0.00,Wunderground v.1.15,2013-06-12 06:09:00,
2013-06-12 01:10:00,71.6,67.2,29.82,North,351,0.0,0.0,86,0.00,,,0.00,Wunderground v.1.15,2013-06-12 06:10:00,
2013-06-12 01:14:00,71.5,67.1,29.83,North,351,0.0,0.0,86,0.00,,,0.00,Wunderground v.1.15,2013-06-12 06:14:00,
2013-06-12 01:15:00,71.4,67.0,29.83,North,351,0.0,0.0,86,0.00,,,0.00,Wunderground v.1.15,2013-06-12 06:15:00,
2013-06-12 01:17:00,71.3,66.9,29.82,North,351,0.0,0.0,86,0.00,,,0.00,Wunderground v.1.15,2013-06-12 06:17:00,
2013-06-12 01:19:00,71.3,67.2,29.83,North,351,0.0,0.0,87,0.00,,,0.00,Wunderground v.1.15,2013-06-12 06:19:00,
2013-06-12 01:21:00,71.2,67.1,29.83,North,351,0.0,0.0,87,0.00,,,0.00,Wunderground v.1.15,2013-06-12 06:21:00,
2013-06-12 01:23:00,71.1,67.0,29.83,North,351,0.0,0.0,87,0.00,,,0.00,Wunderground v.1.15,2013-06-12 06:23:00,
2013-06-12 01:24:00,71.1,67.4,29.83,North,351,0.0,0.0,88,0.00,,,0.00,Wunderground v.1.15,2013-06-12 06:24:00,
2013-06-12 01:26:00,71.2,67.5,29.83,North,351,0.0,0.0,88,0.00,,,0.00,Wunderground v.1.15,2013-06-12 06:26:00,
2013-06-12 01:27:00,71.1,67.4,29.83,North,351,0.0,0.0,88,0.00,,,0.00,Wunderground v.1.15,2013-06-12 06:27:00,
2013-06-12 01:29:00,71.1,67.4,29.83,North,351,0.0,0.0,88,0.00,,,0.00,Wunderground v.1.15,2013-06-12 06:29:00,
2013-06-12 01:30:00,71.1,67.4,29.83,North,351,0.0,0.0,88,0.00,,,0.00,Wunderground v.1.15,2013-06-12 06:30:00,
2013-06-12 01:31:00,71.1,67.4,29.82,North,351,0.0,0.0,88,0.00,,,0.00,Wunderground v.1.15,2013-06-12 06:31:00,
2013-06-12 01:33:00,71.1,67.4,29.82,North,351,0.0,0.0,88,0.00,,,0.00,Wunderground v.1.15,2013-06-12 06:33:00,
2013-06-12 01:36:00,71.1,67.4,29.82,North,351,0.0,1.0,88,0.00,,,0.00,Wunderground v.1.15,2013-06-12 06:36:00,
2013-06-12 01:37:00,71.1,67.4,29.82,North,351,0.0,1.0,88,0.00,,,0.00,Wunderground v.1.15,2013-06-12 06:37:00,
2013-06-12 01:38:00,71.1,67.4,29.82,North,351,0.0,1.0,88,0.00,,,0.00,Wunderground v.1.15,2013-06-12 06:38:00,
2013-06-12 01:42:00,71.0,67.3,29.82,North,351,0.0,0.0,88,0.00,,,0.00,Wunderground v.1.15,2013-06-12 06:42:00,
2013-06-12 01:43:00,71.0,67.3,29.82,North,351,0.0,0.0,88,0.00,,,0.00,Wunderground v.1.15,2013-06-12 06:43:00,
2013-06-12 01:44:00,71.0,67.3,29.82,North,351,0.0,0.0,88,0.00,,,0.00,Wunderground v.1.15,2013-06-12 06:44:00,
2013-06-12 01:45:00,71.0,67.3,29.82,North,351,0.0,0.0,88,0.00,,,0.00,Wunderground v.1.15,2013-06-12 06:45:00,
2013-06-12 01:48:00,70.9,67.2,29.82,North,351,0.0,0.0,88,0.00,,,0.00,Wunderground v.1.15,2013-06-12 06:48:00,
2013-06-12 01:50:00,71.0,67.3,29.82,North,351,0.0,2.0,88,0.00,,,0.00,Wunderground v.1.15,2013-06-12 06:50:00,
2013-06-12 01:51:00,70.9,67.2,29.82,North,351,0.0,2.0,88,0.00,,,0.00,Wunderground v.1.15,2013-06-12 06:51:00,
2013-06-12 01:53:00,70.9,67.2,29.82,North,351,0.0,2.0,88,0.00,,,0.00,Wunderground v.1.15,2013-06-12 06:53:00,
2013-06-12 01:54:00,70.9,67.2,29.82,North,351,0.0,2.0,88,0.00,,,0.00,Wunderground v.1.15,2013-06-12 06:54:00,
2013-06-12 01:58:00,71.0,66.9,29.82,North,351,0.0,2.0,87,0.00,,,0.00,Wunderground v.1.15,2013-06-12 06:58:00,
2013-06-12 01:59:00,71.0,66.9,29.82,North,351,0.0,2.0,87,0.00,,,0.00,Wunderground v.1.15,2013-06-12 06:59:00,
2013-06-12 02:00:00,71.1,67.0,29.82,North,351,0.0,0.0,87,0.00,,,0.00,Wunderground v.1.15,2013-06-12 07:00:00,
2013-06-12 02:01:00,71.1,67.0,29.82,North,355,0.0,0.0,87,0.00,,,0.00,Wunderground v.1.15,2013-06-12 07:01:00,
2013-06-12 02:02:00,71.1,67.0,29.82,North,355,0.0,0.0,87,0.00,,,0.00,Wunderground v.1.15,2013-06-12 07:02:00,
2013-06-12 02:04:00,71.2,67.1,29.82,North,355,0.0,1.0,87,0.00,,,0.00,Wunderground v.1.15,2013-06-12 07:04:00,
2013-06-12 02:05:00,71.2,66.8,29.82,North,355,0.0,1.0,86,0.00,,,0.00,Wunderground v.1.15,2013-06-12 07:05:00,
2013-06-12 02:07:00,71.3,66.9,29.81,North,351,0.0,2.0,86,0.00,,,0.00,Wunderground v.1.15,2013-06-12 07:07:00,
2013-06-12 02:09:00,71.3,66.9,29.82,North,351,0.0,3.0,86,0.00,,,0.00,Wunderground v.1.15,2013-06-12 07:09:00,
2013-06-12 02:13:00,71.4,66.7,29.82,North,351,1.0,2.0,85,0.00,,,0.00,Wunderground v.1.15,2013-06-12 07:13:00,
2013-06-12 02:14:00,71.4,66.7,29.82,North,351,1.0,3.0,85,0.00,,,0.00,Wunderground v.1.15,2013-06-12 07:14:00,
2013-06-12 02:16:00,71.5,66.8,29.82,North,355,1.0,3.0,85,0.00,,,0.00,Wunderground v.1.15,2013-06-12 07:16:00,
2013-06-12 02:18:00,71.5,66.8,29.82,North,355,1.0,3.0,85,0.00,,,0.00,Wunderground v.1.15,2013-06-12 07:18:00,
2013-06-12 02:21:00,71.6,66.5,29.82,North,355,1.0,2.0,84,0.00,,,0.00,Wunderground v.1.15,2013-06-12 07:21:00,
2013-06-12 02:22:00,71.6,66.5,29.82,North,355,1.0,2.0,84,0.00,,,0.00,Wunderground v.1.15,2013-06-12 07:22:00,
2013-06-12 02:24:00,71.7,66.6,29.82,North,355,1.0,2.0,84,0.00,,,0.00,Wunderground v.1.15,2013-06-12 07:24:00,
2013-06-12 02:25:00,71.7,66.6,29.82,North,355,1.0,2.0,84,0.00,,,0.00,Wunderground v.1.15,2013-06-12 07:25:00,
2013-06-12 02:27:00,71.7,66.6,29.82,North,355,0.0,2.0,84,0.00,,,0.00,Wunderground v.1.15,2013-06-12 07:27:00,
2013-06-12 02:30:00,71.7,66.6,29.81,North,355,0.0,0.0,84,0.00,,,0.00,Wunderground v.1.15,2013-06-12 07:30:00,
2013-06-12 02:31:00,71.6,66.5,29.81,North,355,0.0,0.0,84,0.00,,,0.00,Wunderground v.1.15,2013-06-12 07:31:00,
2013-06-12 02:35:00,71.6,66.5,29.81,North,355,0.0,1.0,84,0.00,,,0.00,Wunderground v.1.15,2013-06-12 07:35:00,
2013-06-12 02:37:00,71.5,66.4,29.81,North,355,0.0,1.0,84,0.00,,,0.00,Wunderground v.1.15,2013-06-12 07:37:00,
2013-06-12 02:38:00,71.5,66.4,29.81,North,355,0.0,1.0,84,0.00,,,0.00,Wunderground v.1.15,2013-06-12 07:38:00,
2013-06-12 02:40:00,71.5,66.4,29.81,North,360,0.0,0.0,84,0.00,,,0.00,Wunderground v.1.15,2013-06-12 07:40:00,
2013-06-12 02:42:00,71.4,66.3,29.81,North,360,0.0,0.0,84,0.00,,,0.00,Wunderground v.1.15,2013-06-12 07:42:00,
2013-06-12 02:46:00,71.3,66.2,29.81,North,360,0.0,0.0,84,0.00,,,0.00,Wunderground v.1.15,2013-06-12 07:46:00,
2013-06-12 02:47:00,71.3,66.2,29.81,North,360,0.0,0.0,84,0.00,,,0.00,Wunderground v.1.15,2013-06-12 07:47:00,
2013-06-12 02:48:00,71.3,66.2,29.81,North,360,0.0,0.0,84,0.00,,,0.00,Wunderground v.1.15,2013-06-12 07:48:00,
2013-06-12 02:49:00,71.2,66.1,29.81,North,360,0.0,0.0,84,0.00,,,0.00,Wunderground v.1.15,2013-06-12 07:49:00,
2013-06-12 02:51:00,71.2,66.1,29.81,North,360,0.0,0.0,84,0.00,,,0.00,Wunderground v.1.15,2013-06-12 07:51:00,
2013-06-12 02:54:00,71.2,66.1,29.81,North,360,0.0,0.0,84,0.00,,,0.00,Wunderground v.1.15,2013-06-12 07:54:00,
2013-06-12 02:55:00,71.1,66.0,29.81,North,360,0.0,0.0,84,0.00,,,0.00,Wunderground v.1.15,2013-06-12 07:55:00,
2013-06-12 02:58:00,71.1,66.4,29.82,North,360,0.0,0.0,85,0.00,,,0.00,Wunderground v.1.15,2013-06-12 07:58:00,
2013-06-12 02:59:00,71.1,66.4,29.82,North,360,0.0,0.0,85,0.00,,,0.00,Wunderground v.1.15,2013-06-12 07:59:00,
2013-06-12 03:00:00,71.0,66.3,29.82,North,360,0.0,0.0,85,0.00,,,0.00,Wunderground v.1.15,2013-06-12 08:00:00,
2013-06-12 03:01:00,71.0,66.3,29.82,North,360,0.0,0.0,85,0.00,,,0.00,Wunderground v.1.15,2013-06-12 08:01:00,
2013-06-12 03:04:00,70.9,66.2,29.82,North,360,0.0,0.0,85,0.00,,,0.00,Wunderground v.1.15,2013-06-12 08:04:00,
2013-06-12 03:05:00,70.8,66.1,29.82,North,360,0.0,0.0,85,0.00,,,0.00,Wunderground v.1.15,2013-06-12 08:05:00,
2013-06-12 03:06:00,70.8,66.1,29.82,North,360,0.0,0.0,85,0.00,,,0.00,Wunderground v.1.15,2013-06-12 08:06:00,
2013-06-12 03:09:00,70.7,66.0,29.82,North,360,0.0,0.0,85,0.00,,,0.00,Wunderground v.1.15,2013-06-12 08:09:00,
2013-06-12 03:11:00,70.6,66.2,29.81,North,360,0.0,0.0,86,0.00,,,0.00,Wunderground v.1.15,2013-06-12 08:11:00,
2013-06-12 03:13:00,70.6,66.2,29.81,North,360,0.0,0.0,86,0.00,,,0.00,Wunderground v.1.15,2013-06-12 08:13:00,
2013-06-12 03:15:00,70.5,66.1,29.81,North,360,0.0,0.0,86,0.00,,,0.00,Wunderground v.1.15,2013-06-12 08:15:00,
2013-06-12 03:17:00,70.4,66.3,29.81,North,360,0.0,0.0,87,0.00,,,0.00,Wunderground v.1.15,2013-06-12 08:17:00,
2013-06-12 03:18:00,70.3,66.2,29.81,North,360,0.0,0.0,87,0.00,,,0.00,Wunderground v.1.15,2013-06-12 08:18:00,
2013-06-12 03:20:00,70.2,66.1,29.80,North,360,0.0,0.0,87,0.00,,,0.00,Wunderground v.1.15,2013-06-12 08:20:00,
2013-06-12 03:22:00,70.1,66.0,29.80,North,360,0.0,0.0,87,0.00,,,0.00,Wunderground v.1.15,2013-06-12 08:22:00,
2013-06-12 03:24:00,70.1,66.0,29.80,North,360,0.0,0.0,87,0.00,,,0.00,Wunderground v.1.15,2013-06-12 08:24:00,
2013-06-12 03:25:00,70.0,66.0,29.81,North,360,0.0,0.0,87,0.00,,,0.00,Wunderground v.1.15,2013-06-12 08:25:00,
2013-06-12 03:27:00,70.0,66.0,29.81,North,360,0.0,0.0,87,0.00,,,0.00,Wunderground v.1.15,2013-06-12 08:27:00,
2013-06-12 03:31:00,69.9,65.9,29.80,North,360,0.0,0.0,87,0.00,,,0.00,Wunderground v.1.15,2013-06-12 08:31:00,
2013-06-12 03:33:00,69.9,65.9,29.80,North,360,0.0,0.0,87,0.00,,,0.00,Wunderground v.1.15,2013-06-12 08:33:00,
2013-06-12 03:34:00,69.9,65.9,29.80,North,360,0.0,0.0,87,0.00,,,0.00,Wunderground v.1.15,2013-06-12 08:34:00,
2013-06-12 03:36:00,69.9,65.9,29.79,North,360,0.0,1.0,87,0.00,,,0.00,Wunderground v.1.15,2013-06-12 08:36:00,
2013-06-12 03:39:00,69.9,66.2,29.78,North,5,0.0,3.0,88,0.00,,,0.00,Wunderground v.1.15,2013-06-12 08:39:00,
2013-06-12 03:40:00,69.8,66.1,29.78,North,5,1.0,2.0,88,0.00,,,0.00,Wunderground v.1.15,2013-06-12 08:40:00,
2013-06-12 03:41:00,69.8,66.1,29.78,ENE,59,1.0,2.0,88,0.00,,,0.00,Wunderground v.1.15,2013-06-12 08:41:00,
2013-06-12 03:44:00,69.8,65.8,29.78,ENE,59,1.0,2.0,87,0.00,,,0.00,Wunderground v.1.15,2013-06-12 08:44:00,
2013-06-12 03:45:00,69.8,65.8,29.78,ENE,60,1.0,2.0,87,0.00,,,0.00,Wunderground v.1.15,2013-06-12 08:45:00,
2013-06-12 03:46:00,69.8,65.8,29.78,ENE,60,1.0,2.0,87,0.00,,,0.00,Wunderground v.1.15,2013-06-12 08:46:00,
2013-06-12 03:47:00,69.8,65.8,29.78,ENE,60,1.0,2.0,87,0.00,,,0.00,Wunderground v.1.15,2013-06-12 08:47:00,
2013-06-12 03:51:00,69.9,65.9,29.78,ENE,61,0.0,1.0,87,0.00,,,0.00,Wunderground v.1.15,2013-06-12 08:51:00,
2013-06-12 03:53:00,69.9,65.9,29.78,ENE,61,0.0,1.0,87,0.00,,,0.00,Wunderground v.1.15,2013-06-12 08:53:00,
2013-06-12 03:55:00,69.9,65.9,29.78,ENE,61,0.0,1.0,87,0.00,,,0.00,Wunderground v.1.15,2013-06-12 08:55:00,
2013-06-12 04:00:00,69.9,65.9,29.78,ENE,62,0.0,0.0,87,0.00,,,0.00,Wunderground v.1.15,2013-06-12 09:00:00,
2013-06-12 04:01:00,70.0,66.0,29.78,ENE,62,0.0,0.0,87,0.00,,,0.00,Wunderground v.1.15,2013-06-12 09:01:00,
2013-06-12 04:02:00,69.9,65.9,29.78,ENE,62,0.0,0.0,87,0.00,,,0.00,Wunderground v.1.15,2013-06-12 09:02:00,
2013-06-12 04:04:00,70.0,65.6,29.78,ENE,62,0.0,0.0,86,0.00,,,0.00,Wunderground v.1.15,2013-06-12 09:04:00,
2013-06-12 04:05:00,70.0,65.6,29.78,ENE,62,0.0,0.0,86,0.00,,,0.00,Wunderground v.1.15,2013-06-12 09:05:00,
2013-06-12 04:09:00,70.0,65.6,29.78,ENE,62,0.0,0.0,86,0.00,,,0.00,Wunderground v.1.15,2013-06-12 09:09:00,
2013-06-12 04:10:00,70.0,65.6,29.78,ENE,62,0.0,0.0,86,0.00,,,0.00,Wunderground v.1.15,2013-06-12 09:10:00,
2013-06-12 04:11:00,70.0,65.6,29.78,ENE,62,0.0,0.0,86,0.00,,,0.00,Wunderground v.1.15,2013-06-12 09:11:00,
2013-06-12 04:14:00,70.0,65.6,29.77,ENE,63,0.0,2.0,86,0.00,,,0.00,Wunderground v.1.15,2013-06-12 09:14:00,
2013-06-12 04:15:00,70.1,65.7,29.77,ENE,63,0.0,2.0,86,0.00,,,0.00,Wunderground v.1.15,2013-06-12 09:15:00,
2013-06-12 04:16:00,70.1,65.7,29.78,ENE,64,0.0,2.0,86,0.00,,,0.00,Wunderground v.1.15,2013-06-12 09:16:00,
2013-06-12 04:17:00,70.0,65.6,29.77,ENE,64,0.0,2.0,86,0.00,,,0.00,Wunderground v.1.15,2013-06-12 09:17:00,
2013-06-12 04:22:00,70.0,65.3,29.77,ENE,67,1.0,1.0,85,0.00,,,0.00,Wunderground v.1.15,2013-06-12 09:22:00,
2013-06-12 04:23:00,70.0,65.3,29.77,ENE,67,0.0,1.0,85,0.00,,,0.00,Wunderground v.1.15,2013-06-12 09:23:00,
2013-06-12 04:24:00,69.9,65.2,29.77,ENE,67,0.0,1.0,85,0.00,,,0.00,Wunderground v.1.15,2013-06-12 09:24:00,
2013-06-12 04:26:00,70.0,65.3,29.77,ENE,68,0.0,1.0,85,0.00,,,0.00,Wunderground v.1.15,2013-06-12 09:26:00,
2013-06-12 04:27:00,70.0,65.3,29.77,ENE,68,0.0,1.0,85,0.00,,,0.00,Wunderground v.1.15,2013-06-12 09:27:00,
2013-06-12 04:28:00,70.0,65.3,29.77,ENE,68,0.0,2.0,85,0.00,,,0.00,Wunderground v.1.15,2013-06-12 09:28:00,
2013-06-12 04:30:00,69.9,65.2,29.77,ENE,68,0.0,0.0,85,0.00,,,0.00,Wunderground v.1.15,2013-06-12 09:30:00,
2013-06-12 04:31:00,70.0,65.3,29.78,ENE,69,0.0,0.0,85,0.00,,,0.00,Wunderground v.1.15,2013-06-12 09:31:00,
2013-06-12 04:36:00,69.9,65.2,29.78,ENE,68,0.0,2.0,85,0.00,,,0.00,Wunderground v.1.15,2013-06-12 09:36:00,
2013-06-12 04:37:00,69.9,65.2,29.78,ENE,68,0.0,2.0,85,0.00,,,0.00,Wunderground v.1.15,2013-06-12 09:37:00,
2013-06-12 04:39:00,69.9,65.2,29.78,ENE,69,0.0,2.0,85,0.00,,,0.00,Wunderground v.1.15,2013-06-12 09:39:00,
2013-06-12 04:40:00,69.9,65.2,29.78,ENE,69,0.0,0.0,85,0.00,,,0.00,Wunderground v.1.15,2013-06-12 09:40:00,
2013-06-12 04:41:00,69.9,65.2,29.77,ENE,69,0.0,0.0,85,0.00,,,0.00,Wunderground v.1.15,2013-06-12 09:41:00,
2013-06-12 04:45:00,69.8,65.1,29.77,ENE,69,0.0,3.0,85,0.00,,,0.00,Wunderground v.1.15,2013-06-12 09:45:00,
2013-06-12 04:46:00,69.8,65.1,29.76,ENE,69,0.0,3.0,85,0.00,,,0.00,Wunderground v.1.15,2013-06-12 09:46:00,
2013-06-12 04:47:00,69.8,65.1,29.77,ENE,69,0.0,3.0,85,0.00,,,0.00,Wunderground v.1.15,2013-06-12 09:47:00,
2013-06-12 04:50:00,69.7,65.0,29.77,ENE,69,0.0,0.0,85,0.00,,,0.00,Wunderground v.1.15,2013-06-12 09:50:00,
2013-06-12 04:51:00,69.6,64.9,29.77,ENE,69,0.0,0.0,85,0.00,,,0.00,Wunderground v.1.15,2013-06-12 09:51:00,
2013-06-12 04:52:00,69.7,65.0,29.77,ENE,69,0.0,1.0,85,0.00,,,0.00,Wunderground v.1.15,2013-06-12 09:52:00,
2013-06-12 04:55:00,69.6,64.9,29.77,ENE,69,1.0,1.0,85,0.00,,,0.00,Wunderground v.1.15,2013-06-12 09:55:00,
2013-06-12 04:56:00,69.7,65.0,29.77,ENE,69,1.0,1.0,85,0.00,,,0.00,Wunderground v.1.15,2013-06-12 09:56:00,
2013-06-12 04:57:00,69.7,65.0,29.77,ENE,69,1.0,1.0,85,0.00,,,0.00,Wunderground v.1.15,2013-06-12 09:57:00,
2013-06-12 04:59:00,69.7,65.0,29.76,ENE,69,1.0,1.0,85,0.00,,,0.00,Wunderground v.1.15,2013-06-12 09:59:00,
2013-06-12 05:00:00,69.7,65.0,29.76,ENE,71,1.0,3.0,85,0.00,,,0.00,Wunderground v.1.15,2013-06-12 10:00:00,
2013-06-12 05:01:00,69.7,65.0,29.76,ENE,71,1.0,3.0,85,0.00,,,0.00,Wunderground v.1.15,2013-06-12 10:01:00,
2013-06-12 05:02:00,69.7,65.0,29.76,ENE,71,1.0,3.0,85,0.00,,,0.00,Wunderground v.1.15,2013-06-12 10:02:00,
2013-06-12 05:04:00,69.7,65.0,29.76,ENE,75,0.0,3.0,85,0.00,,,0.00,Wunderground v.1.15,2013-06-12 10:04:00,
2013-06-12 05:06:00,69.7,65.0,29.76,ENE,75,0.0,3.0,85,0.00,,,0.00,Wunderground v.1.15,2013-06-12 10:06:00,
2013-06-12 05:09:00,69.8,65.1,29.77,ENE,75,0.0,3.0,85,0.00,,,0.00,Wunderground v.1.15,2013-06-12 10:09:00,
2013-06-12 05:10:00,69.8,65.1,29.76,ENE,75,0.0,0.0,85,0.00,,,0.00,Wunderground v.1.15,2013-06-12 10:10:00,
2013-06-12 05:12:00,69.8,65.1,29.77,ENE,75,0.0,1.0,85,0.00,,,0.00,Wunderground v.1.15,2013-06-12 10:12:00,
2013-06-12 05:16:00,69.9,65.2,29.77,SE,126,0.0,1.0,85,0.00,,,0.00,Wunderground v.1.15,2013-06-12 10:16:00,
2013-06-12 05:17:00,69.9,65.2,29.77,SE,126,0.0,1.0,85,0.00,,,0.00,Wunderground v.1.15,2013-06-12 10:17:00,
2013-06-12 05:19:00,70.0,65.3,29.77,ESE,116,0.0,2.0,85,0.00,,,0.00,Wunderground v.1.15,2013-06-12 10:19:00,
2013-06-12 05:20:00,70.0,64.9,29.77,ESE,115,1.0,2.0,84,0.00,,,0.00,Wunderground v.1.15,2013-06-12 10:20:00,
2013-06-12 05:23:00,70.1,65.0,29.78,ESE,113,1.0,2.0,84,0.00,,,0.00,Wunderground v.1.15,2013-06-12 10:23:00,
2013-06-12 05:24:00,70.2,65.1,29.78,ESE,114,1.0,2.0,84,0.00,,,0.00,Wunderground v.1.15,2013-06-12 10:24:00,
2013-06-12 05:25:00,70.2,65.1,29.79,ESE,113,1.0,2.0,84,0.00,,,0.00,Wunderground v.1.15,2013-06-12 10:25:00,
2013-06-12 05:29:00,70.3,65.2,29.80,ESE,113,1.0,2.0,84,0.00,,,0.00,Wunderground v.1.15,2013-06-12 10:29:00,
2013-06-12 05:30:00,70.3,65.2,29.80,ESE,113,0.0,0.0,84,0.00,,,0.00,Wunderground v.1.15,2013-06-12 10:30:00,
2013-06-12 05:32:00,70.4,65.3,29.81,North,10,1.0,4.0,84,0.00,,,0.00,Wunderground v.1.15,2013-06-12 10:32:00,
2013-06-12 05:33:00,70.4,65.3,29.81,North,349,1.0,4.0,84,0.00,,,0.00,Wunderground v.1.15,2013-06-12 10:33:00,
2013-06-12 05:34:00,70.4,65.3,29.81,NNW,328,1.0,4.0,84,0.00,,,0.00,Wunderground v.1.15,2013-06-12 10:34:00,
2013-06-12 05:35:00,70.4,65.3,29.82,NNW,328,2.0,4.0,84,0.00,,,0.00,Wunderground v.1.15,2013-06-12 10:35:00,
2013-06-12 05:37:00,70.4,65.3,29.83,NNW,331,3.0,5.0,84,0.00,,,0.00,Wunderground v.1.15,2013-06-12 10:37:00,
2013-06-12 05:39:00,70.3,65.2,29.84,NNW,331,3.0,5.0,84,0.00,,,0.00,Wunderground v.1.15,2013-06-12 10:39:00,
2013-06-12 05:40:00,70.3,65.2,29.84,NNW,331,3.0,3.0,84,0.00,,,0.00,Wunderground v.1.15,2013-06-12 10:40:00,
2013-06-12 05:41:00,70.3,65.2,29.83,NNW,331,3.0,3.0,84,0.00,,,0.00,Wunderground v.1.15,2013-06-12 10:41:00,
2013-06-12 05:45:00,70.2,65.1,29.82,NNW,345,2.0,3.0,84,0.00,,,0.00,Wunderground v.1.15,2013-06-12 10:45:00,
2013-06-12 05:46:00,70.2,65.1,29.82,NNW,346,2.0,3.0,84,0.00,,,0.00,Wunderground v.1.15,2013-06-12 10:46:00,
2013-06-12 05:47:00,70.2,65.1,29.82,NNW,346,2.0,3.0,84,0.00,,,0.00,Wunderground v.1.15,2013-06-12 10:47:00,
2013-06-12 05:49:00,70.1,65.0,29.83,NNW,346,1.0,3.0,84,0.00,,,0.00,Wunderground v.1.15,2013-06-12 10:49:00,
2013-06-12 05:51:00,70.1,65.0,29.83,NNW,346,1.0,1.0,84,0.00,,,0.00,Wunderground v.1.15,2013-06-12 10:51:00,
2013-06-12 05:56:00,69.9,65.2,29.83,NNW,346,0.0,1.0,85,0.00,,,0.00,Wunderground v.1.15,2013-06-12 10:56:00,
2013-06-12 05:57:00,69.9,65.2,29.83,NNW,346,0.0,1.0,85,0.00,,,0.00,Wunderground v.1.15,2013-06-12 10:57:00,
2013-06-12 05:59:00,69.9,65.2,29.84,NNW,346,0.0,1.0,85,0.00,,,0.00,Wunderground v.1.15,2013-06-12 10:59:00,
2013-06-12 06:00:00,69.8,65.1,29.84,NNW,346,0.0,0.0,85,0.00,,,0.00,Wunderground v.1.15,2013-06-12 11:00:00,
2013-06-12 06:01:00,69.8,65.1,29.84,NNW,346,0.0,0.0,85,0.00,,,0.00,Wunderground v.1.15,2013-06-12 11:01:00,
2013-06-12 06:02:00,69.8,65.1,29.84,NNW,346,0.0,0.0,85,0.00,,,0.00,Wunderground v.1.15,2013-06-12 11:02:00,
2013-06-12 06:04:00,69.8,65.1,29.85,NNW,346,0.0,0.0,85,0.00,,,0.00,Wunderground v.1.15,2013-06-12 11:04:00,
2013-06-12 06:06:00,69.7,65.0,29.84,NNW,346,0.0,0.0,85,0.00,,,0.00,Wunderground v.1.15,2013-06-12 11:06:00,
2013-06-12 06:11:00,69.6,65.2,29.84,NNW,346,0.0,0.0,86,0.00,,,0.00,Wunderground v.1.15,2013-06-12 11:11:00,
2013-06-12 06:12:00,69.6,65.2,29.84,NNW,346,0.0,0.0,86,0.00,,,0.00,Wunderground v.1.15,2013-06-12 11:12:00,
2013-06-12 06:14:00,69.6,65.2,29.84,NNW,346,0.0,0.0,86,0.00,,,0.00,Wunderground v.1.15,2013-06-12 11:14:00,
2013-06-12 06:16:00,69.6,65.2,29.84,NNW,346,0.0,0.0,86,0.00,,,0.00,Wunderground v.1.15,2013-06-12 11:16:00,
2013-06-12 06:18:00,69.5,65.1,29.85,NNW,346,0.0,0.0,86,0.00,,,0.00,Wunderground v.1.15,2013-06-12 11:18:00,
2013-06-12 06:21:00,69.5,65.1,29.85,NNW,346,0.0,0.0,86,0.00,,,0.00,Wunderground v.1.15,2013-06-12 11:21:00,
2013-06-12 06:22:00,69.5,65.1,29.85,NNW,346,0.0,0.0,86,0.00,,,0.00,Wunderground v.1.15,2013-06-12 11:22:00,
2013-06-12 06:23:00,69.5,65.5,29.85,NNW,346,0.0,0.0,87,0.00,,,0.00,Wunderground v.1.15,2013-06-12 11:23:00,
2013-06-12 06:24:00,69.5,65.5,29.85,NNW,346,0.0,0.0,87,0.00,,,0.00,Wunderground v.1.15,2013-06-12 11:24:00,
2013-06-12 06:27:00,69.6,65.6,29.86,NNW,346,0.0,0.0,87,0.00,,,0.00,Wunderground v.1.15,2013-06-12 11:27:00,
2013-06-12 06:29:00,69.6,65.6,29.86,NNW,346,0.0,0.0,87,0.00,,,0.00,Wunderground v.1.15,2013-06-12 11:29:00,
2013-06-12 06:32:00,69.5,65.5,29.86,NNW,346,0.0,0.0,87,0.00,,,0.00,Wunderground v.1.15,2013-06-12 11:32:00,
2013-06-12 06:33:00,69.5,65.5,29.86,NNW,346,0.0,0.0,87,0.00,,,0.00,Wunderground v.1.15,2013-06-12 11:33:00,
2013-06-12 06:34:00,69.5,65.5,29.86,NNW,346,0.0,0.0,87,0.00,,,0.00,Wunderground v.1.15,2013-06-12 11:34:00,
2013-06-12 06:39:00,69.5,65.5,29.87,NNW,346,0.0,0.0,87,0.00,,,0.00,Wunderground v.1.15,2013-06-12 11:39:00,
2013-06-12 06:40:00,69.5,65.5,29.87,NNW,346,0.0,0.0,87,0.00,,,0.00,Wunderground v.1.15,2013-06-12 11:40:00,
2013-06-12 06:41:00,69.5,65.5,29.86,NNW,346,0.0,0.0,87,0.00,,,0.00,Wunderground v.1.15,2013-06-12 11:41:00,
2013-06-12 06:45:00,69.6,65.6,29.87,NNW,346,0.0,1.0,87,0.00,,,0.00,Wunderground v.1.15,2013-06-12 11:45:00,
2013-06-12 06:46:00,69.6,65.6,29.87,NNW,346,0.0,1.0,87,0.00,,,0.00,Wunderground v.1.15,2013-06-12 11:46:00,
2013-06-12 06:47:00,69.7,65.7,29.86,NNW,346,0.0,1.0,87,0.00,,,0.00,Wunderground v.1.15,2013-06-12 11:47:00,
2013-06-12 06:50:00,69.7,65.7,29.86,NNW,346,0.0,3.0,87,0.00,,,0.00,Wunderground v.1.15,2013-06-12 11:50:00,
2013-06-12 06:51:00,69.7,65.7,29.85,NNW,346,1.0,3.0,87,0.00,,,0.00,Wunderground v.1.15,2013-06-12 11:51:00,
2013-06-12 06:52:00,69.7,65.7,29.85,NNW,346,1.0,3.0,87,0.00,,,0.00,Wunderground v.1.15,2013-06-12 11:52:00,
2013-06-12 06:53:00,69.7,65.7,29.86,NNW,346,1.0,3.0,87,0.00,,,0.00,Wunderground v.1.15,2013-06-12 11:53:00,
2013-06-12 06:58:00,69.8,65.8,29.86,North,360,1.0,4.0,87,0.00,,,0.00,Wunderground v.1.15,2013-06-12 11:58:00,
2013-06-12 07:00:00,69.9,65.5,29.86,North,360,1.0,1.0,86,0.00,,,0.00,Wunderground v.1.15,2013-06-12 12:00:00,
2013-06-12 07:03:00,69.9,65.5,29.86,North,360,0.0,1.0,86,0.00,,,0.00,Wunderground v.1.15,2013-06-12 12:03:00,
2013-06-12 07:04:00,69.9,65.5,29.85,North,360,1.0,3.0,86,0.00,,,0.00,Wunderground v.1.15,2013-06-12 12:04:00,
2013-06-12 07:06:00,70.0,65.6,29.85,North,9,1.0,3.0,86,0.00,,,0.00,Wunderground v.1.15,2013-06-12 12:06:00,
2013-06-12 07:08:00,70.0,65.6,29.85,North,9,1.0,3.0,86,0.00,,,0.00,Wunderground v.1.15,2013-06-12 12:08:00,
2013-06-12 07:11:00,70.1,65.7,29.86,North,9,1.0,1.0,86,0.00,,,0.00,Wunderground v.1.15,2013-06-12 12:11:00,
2013-06-12 07:12:00,70.1,65.7,29.85,North,9,1.0,1.0,86,0.00,,,0.00,Wunderground v.1.15,2013-06-12 12:12:00,
2013-06-12 07:15:00,70.2,65.5,29.85,North,9,0.0,1.0,85,0.00,,,0.00,Wunderground v.1.15,2013-06-12 12:15:00,
2013-06-12 07:17:00,70.2,65.5,29.84,North,9,0.0,1.0,85,0.00,,,0.00,Wunderground v.1.15,2013-06-12 12:17:00,
2013-06-12 07:19:00,70.3,65.6,29.85,North,9,0.0,1.0,85,0.00,,,0.00,Wunderground v.1.15,2013-06-12 12:19:00,
2013-06-12 07:21:00,70.4,65.7,29.85,North,9,0.0,0.0,85,0.00,,,0.00,Wunderground v.1.15,2013-06-12 12:21:00,
2013-06-12 07:23:00,70.4,65.7,29.85,North,9,0.0,0.0,85,0.00,,,0.00,Wunderground v.1.15,2013-06-12 12:23:00,
2013-06-12 07:24:00,70.4,65.7,29.85,North,9,0.0,0.0,85,0.00,,,0.00,Wunderground v.1.15,2013-06-12 12:24:00,
2013-06-12 07:26:00,70.5,65.4,29.84,North,5,0.0,3.0,84,0.00,,,0.00,Wunderground v.1.15,2013-06-12 12:26:00,
2013-06-12 07:28:00,70.5,65.4,29.84,North,5,0.0,3.0,84,0.00,,,0.00,Wunderground v.1.15,2013-06-12 12:28:00,
2013-06-12 07:31:00,70.6,65.5,29.83,NNE,14,1.0,2.0,84,0.00,,,0.00,Wunderground v.1.15,2013-06-12 12:31:00,
2013-06-12 07:33:00,70.6,65.5,29.83,NNE,27,1.0,2.0,84,0.00,,,0.00,Wunderground v.1.15,2013-06-12 12:33:00,
2013-06-12 07:35:00,70.7,65.6,29.83,NNE,28,1.0,2.0,84,0.00,,,0.00,Wunderground v.1.15,2013-06-12 12:35:00,
2013-06-12 07:36:00,70.7,65.6,29.83,NNE,28,1.0,2.0,84,0.00,,,0.00,Wunderground v.1.15,2013-06-12 12:36:00,
2013-06-12 07:38:00,70.7,65.6,29.83,NE,50,1.0,2.0,84,0.00,,,0.00,Wunderground v.1.15,2013-06-12 12:38:00,
2013-06-12 07:39:00,70.7,65.6,29.83,NE,50,1.0,2.0,84,0.00,,,0.00,Wunderground v.1.15,2013-06-12 12:39:00,
2013-06-12 07:41:00,70.7,65.6,29.83,NE,55,1.0,1.0,84,0.00,,,0.00,Wunderground v.1.15,2013-06-12 12:41:00,
2013-06-12 07:42:00,70.7,65.6,29.84,NE,55,1.0,1.0,84,0.00,,,0.00,Wunderground v.1.15,2013-06-12 12:42:00,
2013-06-12 07:44:00,70.7,65.6,29.86,NE,55,1.0,1.0,84,0.00,,,0.00,Wunderground v.1.15,2013-06-12 12:44:00,
2013-06-12 07:47:00,70.7,65.6,29.87,NE,55,1.0,1.0,84,0.00,,,0.00,Wunderground v.1.15,2013-06-12 12:47:00,
2013-06-12 07:50:00,70.7,65.6,29.86,NE,55,0.0,0.0,84,0.00,,,0.00,Wunderground v.1.15,2013-06-12 12:50:00,
2013-06-12 07:51:00,70.7,65.6,29.86,NE,55,0.0,0.0,84,0.00,,,0.00,Wunderground v.1.15,2013-06-12 12:51:00,
2013-06-12 07:53:00,70.7,65.6,29.86,NE,55,0.0,0.0,84,0.00,,,0.00,Wunderground v.1.15,2013-06-12 12:53:00,
2013-06-12 07:56:00,70.8,65.7,29.86,NE,55,0.0,0.0,84,0.00,,,0.00,Wunderground v.1.15,2013-06-12 12:56:00,
2013-06-12 07:57:00,70.8,65.7,29.86,NE,55,0.0,0.0,84,0.00,,,0.00,Wunderground v.1.15,2013-06-12 12:57:00,
2013-06-12 08:00:00,70.9,65.8,29.85,NE,55,1.0,1.0,84,0.00,,,0.00,Wunderground v.1.15,2013-06-12 13:00:00,
2013-06-12 08:02:00,71.0,65.9,29.86,NE,56,1.0,3.0,84,0.00,,,0.00,Wunderground v.1.15,2013-06-12 13:02:00,
2013-06-12 08:05:00,71.1,66.0,29.85,NE,56,1.0,3.0,84,0.00,,,0.00,Wunderground v.1.15,2013-06-12 13:05:00,
2013-06-12 08:06:00,71.2,66.1,29.85,ENE,69,1.0,3.0,84,0.00,,,0.00,Wunderground v.1.15,2013-06-12 13:06:00,
2013-06-12 08:07:00,71.2,66.1,29.85,ENE,69,1.0,3.0,84,0.00,,,0.00,Wunderground v.1.15,2013-06-12 13:07:00,
2013-06-12 08:11:00,71.3,66.2,29.84,ENE,69,1.0,2.0,84,0.00,,,0.00,Wunderground v.1.15,2013-06-12 13:11:00,
2013-06-12 08:12:00,71.4,66.0,29.84,ENE,69,1.0,3.0,83,0.00,,,0.00,Wunderground v.1.15,2013-06-12 13:12:00,
2013-06-12 08:13:00,71.4,66.0,29.84,ENE,71,1.0,4.0,83,0.00,,,0.00,Wunderground v.1.15,2013-06-12 13:13:00,
2013-06-12 08:14:00,71.4,66.0,29.84,ENE,71,1.0,4.0,83,0.00,,,0.00,Wunderground v.1.15,2013-06-12 13:14:00,
2013-06-12 08:17:00,71.5,66.1,29.84,ENE,69,1.0,4.0,83,0.00,,,0.00,Wunderground v.1.15,2013-06-12 13:17:00,
2013-06-12 08:20:00,71.6,66.2,29.84,ENE,74,1.0,1.0,83,0.00,,,0.00,Wunderground v.1.15,2013-06-12 13:20:00,
2013-06-12 08:21:00,71.6,66.2,29.84,ENE,74,1.0,1.0,83,0.00,,,0.00,Wunderground v.1.15,2013-06-12 13:21:00,
2013-06-12 08:22:00,71.7,66.3,29.84,ENE,74,1.0,1.0,83,0.00,,,0.00,Wunderground v.1.15,2013-06-12 13:22:00,
2013-06-12 08:24:00,71.7,66.3,29.84,ENE,71,1.0,3.0,83,0.00,,,0.00,Wunderground v.1.15,2013-06-12 13:24:00,
2013-06-12 08:26:00,71.7,65.9,29.84,ENE,72,1.0,3.0,82,0.00,,,0.00,Wunderground v.1.15,2013-06-12 13:26:00,
2013-06-12 08:28:00,71.8,66.4,29.84,ENE,76,1.0,3.0,83,0.00,,,0.00,Wunderground v.1.15,2013-06-12 13:28:00,
2013-06-12 08:29:00,71.8,66.0,29.83,ENE,76,1.0,3.0,82,0.00,,,0.00,Wunderground v.1.15,2013-06-12 13:29:00,
2013-06-12 08:30:00,71.9,66.1,29.83,ENE,76,1.0,1.0,82,0.00,,,0.00,Wunderground v.1.15,2013-06-12 13:30:00,
2013-06-12 08:32:00,71.9,66.1,29.83,ENE,76,1.0,3.0,82,0.00,,,0.00,Wunderground v.1.15,2013-06-12 13:32:00,
2013-06-12 08:35:00,72.0,66.2,29.83,ENE,72,1.0,5.0,82,0.00,,,0.00,Wunderground v.1.15,2013-06-12 13:35:00,
2013-06-12 08:36:00,72.0,66.2,29.84,ENE,62,2.0,5.0,82,0.00,,,0.00,Wunderground v.1.15,2013-06-12 13:36:00,
2013-06-12 08:38:00,72.1,66.3,29.84,ENE,62,2.0,5.0,82,0.00,,,0.00,Wunderground v.1.15,2013-06-12 13:38:00,
2013-06-12 08:43:00,72.2,66.4,29.84,ENE,70,2.0,2.0,82,0.00,,,0.00,Wunderground v.1.15,2013-06-12 13:43:00,
2013-06-12 08:44:00,72.3,66.5,29.84,ENE,69,1.0,2.0,82,0.00,,,0.00,Wunderground v.1.15,2013-06-12 13:44:00,
2013-06-12 08:47:00,72.4,66.6,29.83,ENE,70,1.0,2.0,82,0.00,,,0.00,Wunderground v.1.15,2013-06-12 13:47:00,
2013-06-12 08:49:00,72.4,66.6,29.83,ENE,69,1.0,3.0,82,0.00,,,0.00,Wunderground v.1.15,2013-06-12 13:49:00,
2013-06-12 08:50:00,72.5,66.3,29.83,ENE,69,1.0,1.0,81,0.00,,,0.00,Wunderground v.1.15,2013-06-12 13:50:00,
2013-06-12 08:53:00,72.5,66.3,29.84,ENE,70,1.0,3.0,81,0.00,,,0.00,Wunderground v.1.15,2013-06-12 13:53:00,
2013-06-12 08:55:00,72.6,66.4,29.84,ENE,70,1.0,3.0,81,0.00,,,0.00,Wunderground v.1.15,2013-06-12 13:55:00,
2013-06-12 08:56:00,72.6,66.4,29.85,ENE,70,1.0,3.0,81,0.00,,,0.00,Wunderground v.1.15,2013-06-12 13:56:00,
2013-06-12 08:59:00,72.6,66.4,29.84,ENE,70,1.0,3.0,81,0.00,,,0.00,Wunderground v.1.15,2013-06-12 13:59:00,
2013-06-12 09:00:00,72.7,66.5,29.84,ENE,70,1.0,1.0,81,0.00,,,0.00,Wunderground v.1.15,2013-06-12 14:00:00,
2013-06-12 09:03:00,72.7,66.5,29.85,ENE,70,0.0,1.0,81,0.00,,,0.00,Wunderground v.1.15,2013-06-12 14:03:00,
2013-06-12 09:04:00,72.7,66.5,29.84,ENE,70,0.0,1.0,81,0.00,,,0.00,Wunderground v.1.15,2013-06-12 14:04:00,
2013-06-12 09:05:00,72.7,66.5,29.84,ENE,70,0.0,1.0,81,0.00,,,0.00,Wunderground v.1.15,2013-06-12 14:05:00,
2013-06-12 09:08:00,72.8,67.0,29.83,ENE,71,0.0,1.0,82,0.00,,,0.00,Wunderground v.1.15,2013-06-12 14:08:00,
2013-06-12 09:09:00,72.8,67.0,29.83,ENE,71,0.0,1.0,82,0.00,,,0.00,Wunderground v.1.15,2013-06-12 14:09:00,
2013-06-12 09:10:00,72.9,67.1,29.83,ENE,71,0.0,0.0,82,0.00,,,0.00,Wunderground v.1.15,2013-06-12 14:10:00,
2013-06-12 09:14:00,72.9,67.1,29.83,ENE,71,0.0,2.0,82,0.00,,,0.00,Wunderground v.1.15,2013-06-12 14:14:00,
2013-06-12 09:16:00,72.9,66.7,29.82,ESE,105,1.0,5.0,81,0.00,,,0.00,Wunderground v.1.15,2013-06-12 14:16:00,
2013-06-12 09:17:00,72.9,66.7,29.82,ESE,104,1.0,5.0,81,0.00,,,0.00,Wunderground v.1.15,2013-06-12 14:17:00,
2013-06-12 09:18:00,72.9,66.7,29.82,ESE,104,1.0,5.0,81,0.00,,,0.00,Wunderground v.1.15,2013-06-12 14:18:00,
2013-06-12 09:21:00,72.8,66.6,29.81,ESE,104,1.0,1.0,81,0.00,,,0.00,Wunderground v.1.15,2013-06-12 14:21:00,
2013-06-12 09:24:00,72.8,67.0,29.81,ESE,104,1.0,1.0,82,0.00,,,0.00,Wunderground v.1.15,2013-06-12 14:24:00,
2013-06-12 09:25:00,72.8,67.0,29.81,ESE,104,1.0,1.0,82,0.00,,,0.00,Wunderground v.1.15,2013-06-12 14:25:00,
2013-06-12 09:27:00,72.8,66.6,29.81,ESE,104,0.0,1.0,81,0.00,,,0.00,Wunderground v.1.15,2013-06-12 14:27:00,
2013-06-12 09:31:00,72.8,67.0,29.81,ESE,117,1.0,3.0,82,0.00,,,0.00,Wunderground v.1.15,2013-06-12 14:31:00,
2013-06-12 09:32:00,72.8,67.0,29.81,ESE,117,1.0,3.0,82,0.00,,,0.00,Wunderground v.1.15,2013-06-12 14:32:00,
2013-06-12 09:33:00,72.7,66.5,29.81,ESE,117,1.0,3.0,81,0.00,,,0.00,Wunderground v.1.15,2013-06-12 14:33:00,
2013-06-12 09:34:00,72.7,66.9,29.80,ESE,119,1.0,5.0,82,0.00,,,0.00,Wunderground v.1.15,2013-06-12 14:34:00,
2013-06-12 09:36:00,72.7,66.9,29.79,ESE,118,2.0,5.0,82,0.00,,,0.00,Wunderground v.1.15,2013-06-12 14:36:00,
2013-06-12 09:37:00,72.7,66.9,29.79,ESE,118,2.0,5.0,82,0.00,,,0.00,Wunderground v.1.15,2013-06-12 14:37:00,
2013-06-12 09:38:00,72.7,66.9,29.79,ESE,118,2.0,5.0,82,0.00,,,0.00,Wunderground v.1.15,2013-06-12 14:38:00,
2013-06-12 09:39:00,72.7,66.9,29.79,ESE,118,2.0,5.0,82,0.00,,,0.00,Wunderground v.1.15,2013-06-12 14:39:00,
2013-06-12 09:42:00,72.7,66.9,29.79,ESE,115,1.0,3.0,82,0.00,,,0.00,Wunderground v.1.15,2013-06-12 14:42:00,
2013-06-12 09:44:00,72.7,66.9,29.79,ESE,121,1.0,5.0,82,0.00,,,0.00,Wunderground v.1.15,2013-06-12 14:44:00,
2013-06-12 09:46:00,72.7,66.9,29.79,ESE,121,1.0,5.0,82,0.00,,,0.00,Wunderground v.1.15,2013-06-12 14:46:00,
2013-06-12 09:49:00,72.8,67.0,29.79,SE,135,1.0,5.0,82,0.00,,,0.00,Wunderground v.1.15,2013-06-12 14:49:00,
2013-06-12 09:51:00,72.8,67.0,29.79,SE,136,2.0,2.0,82,0.00,,,0.00,Wunderground v.1.15,2013-06-12 14:51:00,
2013-06-12 09:53:00,72.8,67.0,29.79,SE,136,2.0,2.0,82,0.00,,,0.00,Wunderground v.1.15,2013-06-12 14:53:00,
2013-06-12 09:54:00,72.8,67.0,29.77,SE,135,2.0,3.0,82,0.00,,,0.00,Wunderground v.1.15,2013-06-12 14:54:00,
2013-06-12 09:55:00,72.8,67.0,29.76,ESE,119,2.0,6.0,82,0.00,,,0.00,Wunderground v.1.15,2013-06-12 14:55:00,
2013-06-12 09:59:00,72.8,67.0,29.70,SE,132,4.0,12.0,82,0.00,,,0.00,Wunderground v.1.15,2013-06-12 14:59:00,
2013-06-12 10:00:00,72.8,66.6,29.68,South,170,5.0,9.0,81,0.00,,,0.00,Wunderground v.1.15,2013-06-12 15:00:00,
2013-06-12 10:01:00,72.7,66.5,29.67,SE,139,6.0,9.0,81,0.00,,,0.00,Wunderground v.1.15,2013-06-12 15:01:00,
2013-06-12 10:03:00,72.7,66.5,29.67,SSE,165,7.0,9.0,81,0.00,,,0.00,Wunderground v.1.15,2013-06-12 15:03:00,
2013-06-12 10:04:00,72.7,66.5,29.66,SSE,158,8.0,9.0,81,0.00,,,0.00,Wunderground v.1.15,2013-06-12 15:04:00,
2013-06-12 10:06:00,72.8,66.6,29.66,ESE,121,8.0,9.0,81,0.00,,,0.00,Wunderground v.1.15,2013-06-12 15:06:00,
2013-06-12 10:07:00,72.7,66.5,29.66,South,169,9.0,11.0,81,0.00,,,0.00,Wunderground v.1.15,2013-06-12 15:07:00,
2013-06-12 10:11:00,73.0,67.2,29.67,South,169,7.0,9.0,82,0.00,,,0.00,Wunderground v.1.15,2013-06-12 15:11:00,
2013-06-12 10:12:00,73.0,67.2,29.67,South,180,7.0,9.0,82,0.00,,,0.00,Wunderground v.1.15,2013-06-12 15:12:00,
2013-06-12 10:15:00,73.3,67.5,29.67,SSE,161,6.0,9.0,82,0.00,,,0.00,Wunderground v.1.15,2013-06-12 15:15:00,
2013-06-12 10:16:00,73.3,67.5,29.67,SSE,157,6.0,9.0,82,0.00,,,0.00,Wunderground v.1.15,2013-06-12 15:16:00,
2013-06-12 10:17:00,73.4,67.6,29.67,SSE,167,6.0,9.0,82,0.00,,,0.00,Wunderground v.1.15,2013-06-12 15:17:00,
2013-06-12 10:18:00,73.5,67.7,29.67,SSW,194,6.0,9.0,82,0.00,,,0.00,Wunderground v.1.15,2013-06-12 15:18:00,
2013-06-12 10:19:00,73.6,67.8,29.67,SSW,200,6.0,9.0,82,0.00,,,0.00,Wunderground v.1.15,2013-06-12 15:19:00,
2013-06-12 10:24:00,74.1,68.3,29.68,SSE,161,7.0,11.0,82,0.00,,,0.00,Wunderground v.1.15,2013-06-12 15:24:00,
2013-06-12 10:25:00,74.2,68.3,29.68,South,175,7.0,16.0,82,0.00,,,0.00,Wunderground v.1.15,2013-06-12 15:25:00,
2013-06-12 10:26:00,74.3,68.4,29.68,SSE,162,7.0,16.0,82,0.00,,,0.00,Wunderground v.1.15,2013-06-12 15:26:00,
2013-06-12 10:29:00,74.6,68.7,29.68,South,184,7.0,16.0,82,0.00,,,0.00,Wunderground v.1.15,2013-06-12 15:29:00,
2013-06-12 10:30:00,74.7,69.2,29.68,South,184,7.0,7.0,83,0.00,,,0.00,Wunderground v.1.15,2013-06-12 15:30:00,
2013-06-12 10:31:00,74.8,68.9,29.68,SSE,162,7.0,11.0,82,0.00,,,0.00,Wunderground v.1.15,2013-06-12 15:31:00,
2013-06-12 10:32:00,74.8,68.9,29.68,South,188,7.0,11.0,82,0.00,,,0.00,Wunderground v.1.15,2013-06-12 15:32:00,
2013-06-12 10:36:00,75.2,69.3,29.68,SE,132,6.0,11.0,82,0.00,,,0.00,Wunderground v.1.15,2013-06-12 15:36:00,
2013-06-12 10:38:00,75.3,69.4,29.67,SE,136,5.0,11.0,82,0.00,,,0.00,Wunderground v.1.15,2013-06-12 15:38:00,
2013-06-12 10:39:00,75.4,69.5,29.67,SSE,150,6.0,11.0,82,0.00,,,0.00,Wunderground v.1.15,2013-06-12 15:39:00,
2013-06-12 10:44:00,75.8,69.9,29.67,South,175,5.0,7.0,82,0.00,,,0.00,Wunderground v.1.15,2013-06-12 15:44:00,
2013-06-12 10:45:00,75.8,69.9,29.67,SSE,166,5.0,7.0,82,0.00,,,0.00,Wunderground v.1.15,2013-06-12 15:45:00,
2013-06-12 10:47:00,76.0,70.1,29.67,SSE,159,5.0,7.0,82,0.00,,,0.00,Wunderground v.1.15,2013-06-12 15:47:00,
2013-06-12 10:48:00,76.0,70.1,29.67,SSE,152,5.0,7.0,82,0.00,,,0.00,Wunderground v.1.15,2013-06-12 15:48:00,
2013-06-12 10:50:00,76.2,70.3,29.67,SE,128,4.0,6.0,82,0.00,,,0.00,Wunderground v.1.15,2013-06-12 15:50:00,
2013-06-12 10:52:00,76.3,70.4,29.67,SSW,197,6.0,13.0,82,0.00,,,0.00,Wunderground v.1.15,2013-06-12 15:52:00,
2013-06-12 10:53:00,76.4,70.5,29.67,SE,144,6.0,13.0,82,0.00,,,0.00,Wunderground v.1.15,2013-06-12 15:53:00,
2013-06-12 10:57:00,76.6,70.3,29.67,SSE,163,6.0,13.0,81,0.00,,,0.00,Wunderground v.1.15,2013-06-12 15:57:00,
2013-06-12 10:58:00,76.7,70.4,29.67,SSE,148,7.0,13.0,81,0.00,,,0.00,Wunderground v.1.15,2013-06-12 15:58:00,
2013-06-12 11:01:00,76.8,70.5,29.67,SE,140,6.0,6.0,81,0.00,,,0.00,Wunderground v.1.15,2013-06-12 16:01:00,
2013-06-12 11:02:00,76.8,70.5,29.67,SSE,163,6.0,6.0,81,0.00,,,0.00,Wunderground v.1.15,2013-06-12 16:02:00,
2013-06-12 11:04:00,76.9,70.6,29.67,South,184,6.0,7.0,81,0.00,,,0.00,Wunderground v.1.15,2013-06-12 16:04:00,
2013-06-12 11:07:00,76.9,70.3,29.66,South,176,6.0,7.0,80,0.00,,,0.00,Wunderground v.1.15,2013-06-12 16:07:00,
2013-06-12 11:08:00,76.9,70.6,29.66,SSE,163,6.0,7.0,81,0.00,,,0.00,Wunderground v.1.15,2013-06-12 16:08:00,
2013-06-12 11:09:00,76.9,70.3,29.66,South,189,6.0,16.0,80,0.00,,,0.00,Wunderground v.1.15,2013-06-12 16:09:00,
2013-06-12 11:10:00,77.0,70.4,29.66,SSE,167,6.0,14.0,80,0.00,,,0.00,Wunderground v.1.15,2013-06-12 16:10:00,
2013-06-12 11:13:00,77.0,70.4,29.67,SW,216,7.0,14.0,80,0.00,,,0.00,Wunderground v.1.15,2013-06-12 16:13:00,
2013-06-12 11:15:00,77.1,70.5,29.67,SSE,161,7.0,14.0,80,0.00,,,0.00,Wunderground v.1.15,2013-06-12 16:15:00,
2013-06-12 11:17:00,77.1,70.5,29.67,SSE,159,7.0,15.0,80,0.00,,,0.00,Wunderground v.1.15,2013-06-12 16:17:00,
2013-06-12 11:18:00,77.2,70.5,29.67,South,174,7.0,15.0,80,0.00,,,0.00,Wunderground v.1.15,2013-06-12 16:18:00,
2013-06-12 11:20:00,77.3,70.6,29.68,South,187,7.0,7.0,80,0.00,,,0.00,Wunderground v.1.15,2013-06-12 16:20:00,
2013-06-12 11:22:00,77.4,70.4,29.68,South,176,6.0,9.0,79,0.00,,,0.00,Wunderground v.1.15,2013-06-12 16:22:00,
2013-06-12 11:23:00,77.5,70.8,29.68,South,175,6.0,9.0,80,0.00,,,0.00,Wunderground v.1.15,2013-06-12 16:23:00,
2013-06-12 11:26:00,77.7,70.7,29.68,South,180,6.0,11.0,79,0.00,,,0.00,Wunderground v.1.15,2013-06-12 16:26:00,
2013-06-12 11:27:00,77.8,71.1,29.69,SSW,192,6.0,11.0,80,0.00,,,0.00,Wunderground v.1.15,2013-06-12 16:27:00,
2013-06-12 11:28:00,77.8,70.8,29.69,South,179,6.0,11.0,79,0.00,,,0.00,Wunderground v.1.15,2013-06-12 16:28:00,
2013-06-12 11:29:00,77.9,70.9,29.69,South,177,6.0,11.0,79,0.00,,,0.00,Wunderground v.1.15,2013-06-12 16:29:00,
2013-06-12 11:34:00,78.2,71.5,29.70,SSW,205,6.0,7.0,80,0.00,,,0.00,Wunderground v.1.15,2013-06-12 16:34:00,
2013-06-12 11:35:00,78.3,71.6,29.70,SSW,195,6.0,7.0,80,0.00,,,0.00,Wunderground v.1.15,2013-06-12 16:35:00,
2013-06-12 11:39:00,78.8,72.1,29.70,South,180,6.0,10.0,80,0.00,,,0.00,Wunderground v.1.15,2013-06-12 16:39:00,
2013-06-12 11:40:00,78.9,71.8,29.70,SSE,155,6.0,6.0,79,0.00,,,0.00,Wunderground v.1.15,2013-06-12 16:40:00,
2013-06-12 11:44:00,79.6,72.1,29.70,South,180,7.0,9.0,78,0.00,,,0.00,Wunderground v.1.15,2013-06-12 16:44:00,
2013-06-12 11:45:00,79.8,72.3,29.70,SSW,194,8.0,9.0,78,0.00,,,0.00,Wunderground v.1.15,2013-06-12 16:45:00,
2013-06-12 11:48:00,80.3,71.6,29.71,South,183,8.0,13.0,75,0.00,,,0.00,Wunderground v.1.15,2013-06-12 16:48:00,
2013-06-12 11:50:00,80.7,72.0,29.71,South,184,8.0,18.0,75,0.00,,,0.00,Wunderground v.1.15,2013-06-12 16:50:00,
2013-06-12 11:51:00,80.9,71.8,29.71,South,173,9.0,18.0,74,0.00,,,0.00,Wunderground v.1.15,2013-06-12 16:51:00,
2013-06-12 11:52:00,81.0,71.9,29.70,SSW,193,9.0,18.0,74,0.00,,,0.00,Wunderground v.1.15,2013-06-12 16:52:00,
2013-06-12 11:56:00,81.4,72.3,29.70,SSW,207,9.0,18.0,74,0.00,,,0.00,Wunderground v.1.15,2013-06-12 16:56:00,
2013-06-12 11:57:00,81.4,72.3,29.70,South,182,9.0,18.0,74,0.00,,,0.00,Wunderground v.1.15,2013-06-12 16:57:00,
2013-06-12 11:58:00,81.5,72.4,29.70,SSW,198,9.0,18.0,74,0.00,,,0.00,Wunderground v.1.15,2013-06-12 16:58:00,
2013-06-12 12:00:00,81.5,72.4,29.70,SSW,194,9.0,9.0,74,0.00,,,0.00,Wunderground v.1.15,2013-06-12 17:00:00,
2013-06-12 12:03:00,81.6,72.5,29.70,South,176,8.0,9.0,74,0.00,,,0.00,Wunderground v.1.15,2013-06-12 17:03:00,
2013-06-12 12:04:00,81.6,72.5,29.70,South,182,8.0,9.0,74,0.00,,,0.00,Wunderground v.1.15,2013-06-12 17:04:00,
2013-06-12 12:08:00,81.8,72.7,29.71,South,171,7.0,12.0,74,0.00,,,0.00,Wunderground v.1.15,2013-06-12 17:08:00,
2013-06-12 12:09:00,81.9,72.8,29.71,SSW,201,7.0,12.0,74,0.00,,,0.00,Wunderground v.1.15,2013-06-12 17:09:00,
2013-06-12 12:13:00,82.5,73.0,29.71,SSW,198,8.0,13.0,73,0.00,,,0.00,Wunderground v.1.15,2013-06-12 17:13:00,
2013-06-12 12:14:00,82.7,72.7,29.71,SSW,207,8.0,13.0,72,0.00,,,0.00,Wunderground v.1.15,2013-06-12 17:14:00,
2013-06-12 12:20:00,83.5,72.7,29.71,SSW,204,9.0,9.0,70,0.00,,,0.00,Wunderground v.1.15,2013-06-12 17:20:00,
2013-06-12 12:21:00,83.7,72.9,29.71,South,186,10.0,10.0,70,0.00,,,0.00,Wunderground v.1.15,2013-06-12 17:21:00,
2013-06-12 12:23:00,83.8,73.0,29.71,SSW,197,9.0,10.0,70,0.00,,,0.00,Wunderground v.1.15,2013-06-12 17:23:00,
2013-06-12 12:24:00,83.9,73.5,29.71,South,173,9.0,10.0,71,0.00,,,0.00,Wunderground v.1.15,2013-06-12 17:24:00,
2013-06-12 12:25:00,83.9,73.1,29.71,SW,224,9.0,10.0,70,0.00,,,0.00,Wunderground v.1.15,2013-06-12 17:25:00,
2013-06-12 12:26:00,84.0,73.6,29.71,SSW,202,8.0,10.0,71,0.00,,,0.00,Wunderground v.1.15,2013-06-12 17:26:00,
2013-06-12 12:29:00,84.3,73.9,29.71,SSW,201,8.0,10.0,71,0.00,,,0.00,Wunderground v.1.15,2013-06-12 17:29:00,
2013-06-12 12:31:00,84.6,74.2,29.71,South,173,7.0,9.0,71,0.00,,,0.00,Wunderground v.1.15,2013-06-12 17:31:00,
2013-06-12 12:33:00,84.8,73.9,29.71,SSW,198,7.0,14.0,70,0.00,,,0.00,Wunderground v.1.15,2013-06-12 17:33:00,
2013-06-12 12:35:00,85.1,74.2,29.71,SSW,202,8.0,14.0,70,0.00,,,0.00,Wunderground v.1.15,2013-06-12 17:35:00,
2013-06-12 12:36:00,85.4,74.1,29.71,SW,214,8.0,14.0,69,0.00,,,0.00,Wunderground v.1.15,2013-06-12 17:36:00,
2013-06-12 12:37:00,85.4,74.1,29.70,South,186,8.0,14.0,69,0.00,,,0.00,Wunderground v.1.15,2013-06-12 17:37:00,
2013-06-12 12:39:00,85.6,74.3,29.70,WSW,257,8.0,14.0,69,0.00,,,0.00,Wunderground v.1.15,2013-06-12 17:39:00,
2013-06-12 12:40:00,85.7,74.4,29.70,SSE,159,8.0,8.0,69,0.00,,,0.00,Wunderground v.1.15,2013-06-12 17:40:00,
2013-06-12 12:42:00,85.7,74.4,29.71,South,178,8.0,8.0,69,0.00,,,0.00,Wunderground v.1.15,2013-06-12 17:42:00,
2013-06-12 12:44:00,86.0,75.1,29.71,WSW,255,8.0,13.0,70,0.00,,,0.00,Wunderground v.1.15,2013-06-12 17:44:00,
2013-06-12 12:45:00,86.0,74.6,29.70,SSW,194,8.0,13.0,69,0.00,,,0.00,Wunderground v.1.15,2013-06-12 17:45:00,
2013-06-12 12:46:00,86.2,74.8,29.71,SSW,196,8.0,16.0,69,0.00,,,0.00,Wunderground v.1.15,2013-06-12 17:46:00,
2013-06-12 12:51:00,86.7,74.9,29.70,SSW,207,8.0,11.0,68,0.00,,,0.00,Wunderground v.1.15,2013-06-12 17:51:00,
2013-06-12 12:52:00,86.7,74.4,29.70,South,190,8.0,18.0,67,0.00,,,0.00,Wunderground v.1.15,2013-06-12 17:52:00,
2013-06-12 12:53:00,86.7,74.0,29.70,SW,227,8.0,18.0,66,0.00,,,0.00,Wunderground v.1.15,2013-06-12 17:53:00,
2013-06-12 12:55:00,86.6,74.3,29.71,SSW,202,8.0,18.0,67,0.00,,,0.00,Wunderground v.1.15,2013-06-12 17:55:00,
2013-06-12 12:57:00,86.4,74.1,29.70,SSW,205,8.0,18.0,67,0.00,,,0.00,Wunderground v.1.15,2013-06-12 17:57:00,
2013-06-12 12:59:00,86.2,74.4,29.70,South,181,7.0,18.0,68,0.00,,,0.00,Wunderground v.1.15,2013-06-12 17:59:00,
2013-06-12 13:01:00,85.9,74.5,29.70,SSW,200,7.0,7.0,69,0.00,,,0.00,Wunderground v.1.15,2013-06-12 18:01:00,
2013-06-12 13:04:00,85.6,74.3,29.70,SSW,200,5.0,10.0,69,0.00,,,0.00,Wunderground v.1.15,2013-06-12 18:04:00,
2013-06-12 13:05:00,85.5,74.2,29.70,WSW,248,5.0,10.0,69,0.00,,,0.00,Wunderground v.1.15,2013-06-12 18:05:00,
2013-06-12 13:06:00,85.3,74.0,29.70,SW,227,5.0,10.0,69,0.00,,,0.00,Wunderground v.1.15,2013-06-12 18:06:00,
2013-06-12 13:10:00,85.1,74.6,29.71,SW,229,5.0,5.0,71,0.00,,,0.00,Wunderground v.1.15,2013-06-12 18:10:00,
2013-06-12 13:11:00,85.1,74.6,29.71,SSW,198,5.0,5.0,71,0.00,,,0.00,Wunderground v.1.15,2013-06-12 18:11:00,
2013-06-12 13:12:00,85.1,75.1,29.71,SSW,197,5.0,5.0,72,0.00,,,0.00,Wunderground v.1.15,2013-06-12 18:12:00,
2013-06-12 13:13:00,85.2,75.1,29.71,SSW,212,5.0,7.0,72,0.00,,,0.00,Wunderground v.1.15,2013-06-12 18:13:00,
2013-06-12 13:16:00,85.5,75.0,29.70,SW,221,5.0,10.0,71,0.00,,,0.00,Wunderground v.1.15,2013-06-12 18:16:00,
2013-06-12 13:17:00,85.5,75.0,29.70,SW,227,5.0,10.0,71,0.00,,,0.00,Wunderground v.1.15,2013-06-12 18:17:00,
2013-06-12 13:19:00,85.5,74.6,29.70,South,182,5.0,10.0,70,0.00,,,0.00,Wunderground v.1.15,2013-06-12 18:19:00,
2013-06-12 13:21:00,85.4,74.9,29.70,South,182,5.0,5.0,71,0.00,,,0.00,Wunderground v.1.15,2013-06-12 18:21:00,
2013-06-12 13:23:00,85.3,74.4,29.69,SSW,205,6.0,7.0,70,0.00,,,0.00,Wunderground v.1.15,2013-06-12 18:23:00,
2013-06-12 13:24:00,85.3,74.8,29.69,SSW,200,5.0,7.0,71,0.00,,,0.00,Wunderground v.1.15,2013-06-12 18:24:00,
2013-06-12 13:25:00,85.2,74.3,29.69,SSW,200,5.0,7.0,70,0.00,,,0.00,Wunderground v.1.15,2013-06-12 18:25:00,
2013-06-12 13:26:00,85.1,74.2,29.69,SSW,200,5.0,7.0,70,0.00,,,0.00,Wunderground v.1.15,2013-06-12 18:26:00,
2013-06-12 13:32:00,84.8,74.8,29.69,SSW,202,2.0,4.0,72,0.00,,,0.00,Wunderground v.1.15,2013-06-12 18:32:00,
2013-06-12 13:33:00,84.8,74.8,29.69,SSW,197,2.0,4.0,72,0.00,,,0.00,Wunderground v.1.15,2013-06-12 18:33:00,
2013-06-12 13:34:00,84.8,74.8,29.69,SSW,197,2.0,4.0,72,0.00,,,0.00,Wunderground v.1.15,2013-06-12 18:34:00,
2013-06-12 13:36:00,84.8,74.8,29.69,SSW,197,1.0,4.0,72,0.00,,,0.00,Wunderground v.1.15,2013-06-12 18:36:00,
2013-06-12 13:38:00,84.8,74.8,29.69,South,181,2.0,7.0,72,0.00,,,0.00,Wunderground v.1.15,2013-06-12 18:38:00,
2013-06-12 13:39:00,84.8,74.3,29.69,South,177,2.0,7.0,71,0.00,,,0.00,Wunderground v.1.15,2013-06-12 18:39:00,
2013-06-12 13:40:00,84.9,74.4,29.69,South,173,2.0,3.0,71,0.00,,,0.00,Wunderground v.1.15,2013-06-12 18:40:00,
2013-06-12 13:44:00,85.1,74.2,29.69,South,180,3.0,5.0,70,0.00,,,0.00,Wunderground v.1.15,2013-06-12 18:44:00,
2013-06-12 13:47:00,85.2,74.7,29.69,South,181,3.0,5.0,71,0.00,,,0.00,Wunderground v.1.15,2013-06-12 18:47:00,
2013-06-12 13:48:00,85.3,74.8,29.69,South,188,3.0,10.0,71,0.00,,,0.00,Wunderground v.1.15,2013-06-12 18:48:00,
2013-06-12 13:51:00,85.5,74.6,29.68,South,173,3.0,5.0,70,0.00,,,0.00,Wunderground v.1.15,2013-06-12 18:51:00,
2013-06-12 13:53:00,85.7,74.4,29.69,SSW,201,3.0,9.0,69,0.00,,,0.00,Wunderground v.1.15,2013-06-12 18:53:00,
2013-06-12 13:55:00,85.8,74.9,29.69,SSW,198,3.0,9.0,70,0.00,,,0.00,Wunderground v.1.15,2013-06-12 18:55:00,
2013-06-12 13:57:00,86.0,74.6,29.69,SSW,198,3.0,9.0,69,0.00,,,0.00,Wunderground v.1.15,2013-06-12 18:57:00,
2013-06-12 13:59:00,86.2,74.8,29.69,South,181,3.0,9.0,69,0.00,,,0.00,Wunderground v.1.15,2013-06-12 18:59:00,
2013-06-12 14:00:00,86.3,75.4,29.69,South,181,3.0,3.0,70,0.00,,,0.00,Wunderground v.1.15,2013-06-12 19:00:00,
2013-06-12 14:01:00,86.4,75.5,29.69,South,181,2.0,3.0,70,0.00,,,0.00,Wunderground v.1.15,2013-06-12 19:01:00,
2013-06-12 14:02:00,86.4,75.9,29.68,South,181,2.0,3.0,71,0.00,,,0.00,Wunderground v.1.15,2013-06-12 19:02:00,
2013-06-12 14:03:00,86.5,76.0,29.69,South,181,1.0,3.0,71,0.00,,,0.00,Wunderground v.1.15,2013-06-12 19:03:00,
2013-06-12 14:08:00,86.7,74.9,29.69,SSE,168,2.0,4.0,68,0.00,,,0.00,Wunderground v.1.15,2013-06-12 19:08:00,
2013-06-12 14:09:00,86.7,75.3,29.68,SSE,168,2.0,4.0,69,0.00,,,0.00,Wunderground v.1.15,2013-06-12 19:09:00,
2013-06-12 14:10:00,86.8,75.4,29.68,South,188,2.0,4.0,69,0.00,,,0.00,Wunderground v.1.15,2013-06-12 19:10:00,
2013-06-12 14:14:00,87.0,74.7,29.68,South,186,3.0,5.0,67,0.00,,,0.00,Wunderground v.1.15,2013-06-12 19:14:00,
2013-06-12 14:16:00,87.2,75.3,29.68,South,186,2.0,5.0,68,0.00,,,0.00,Wunderground v.1.15,2013-06-12 19:16:00,
2013-06-12 14:20:00,87.3,74.5,29.68,South,184,2.0,2.0,66,0.00,,,0.00,Wunderground v.1.15,2013-06-12 19:20:00,
2013-06-12 14:21:00,87.3,75.0,29.68,South,186,2.0,3.0,67,0.00,,,0.00,Wunderground v.1.15,2013-06-12 19:21:00,
2013-06-12 14:22:00,87.4,75.1,29.68,South,185,3.0,3.0,67,0.00,,,0.00,Wunderground v.1.15,2013-06-12 19:22:00,
2013-06-12 14:23:00,87.4,76.0,29.68,SSW,199,2.0,7.0,69,0.00,,,0.00,Wunderground v.1.15,2013-06-12 19:23:00,
2013-06-12 14:27:00,87.9,75.1,29.67,South,190,3.0,7.0,66,0.00,,,0.00,Wunderground v.1.15,2013-06-12 19:27:00,
2013-06-12 14:28:00,88.0,74.8,29.67,South,190,3.0,7.0,65,0.00,,,0.00,Wunderground v.1.15,2013-06-12 19:28:00,
2013-06-12 14:30:00,88.2,74.9,29.67,South,186,3.0,3.0,65,0.00,,,0.00,Wunderground v.1.15,2013-06-12 19:30:00,
2013-06-12 14:31:00,88.3,74.6,29.67,South,186,3.0,3.0,64,0.00,,,0.00,Wunderground v.1.15,2013-06-12 19:31:00,
2013-06-12 14:33:00,88.4,74.7,29.67,SE,146,3.0,6.0,64,0.00,,,0.00,Wunderground v.1.15,2013-06-12 19:33:00,
2013-06-12 14:34:00,88.4,74.7,29.67,SSE,147,3.0,6.0,64,0.00,,,0.00,Wunderground v.1.15,2013-06-12 19:34:00,
2013-06-12 14:38:00,88.6,74.9,29.67,SSW,199,3.0,6.0,64,0.00,,,0.00,Wunderground v.1.15,2013-06-12 19:38:00,
2013-06-12 14:40:00,88.7,74.5,29.67,SSW,195,3.0,6.0,63,0.00,,,0.00,Wunderground v.1.15,2013-06-12 19:40:00,
2013-06-12 14:41:00,88.7,74.5,29.67,SSW,205,3.0,6.0,63,0.00,,,0.00,Wunderground v.1.15,2013-06-12 19:41:00,
2013-06-12 14:42:00,88.8,74.6,29.67,SSW,205,4.0,6.0,63,0.00,,,0.00,Wunderground v.1.15,2013-06-12 19:42:00,
2013-06-12 14:45:00,89.0,75.2,29.67,SSW,199,4.0,6.0,64,0.00,,,0.00,Wunderground v.1.15,2013-06-12 19:45:00,
2013-06-12 14:47:00,89.1,74.4,29.67,South,190,5.0,6.0,62,0.00,,,0.00,Wunderground v.1.15,2013-06-12 19:47:00,
2013-06-12 14:48:00,89.2,75.0,29.67,South,190,5.0,6.0,63,0.00,,,0.00,Wunderground v.1.15,2013-06-12 19:48:00,
2013-06-12 14:49:00,89.2,75.4,29.67,South,190,4.0,6.0,64,0.00,,,0.00,Wunderground v.1.15,2013-06-12 19:49:00,
2013-06-12 14:50:00,89.3,75.0,29.67,South,186,4.0,4.0,63,0.00,,,0.00,Wunderground v.1.15,2013-06-12 19:50:00,
2013-06-12 14:52:00,89.3,74.1,29.67,South,184,4.0,4.0,61,0.00,,,0.00,Wunderground v.1.15,2013-06-12 19:52:00,
2013-06-12 14:54:00,89.4,74.2,29.67,South,188,4.0,9.0,61,0.00,,,0.00,Wunderground v.1.15,2013-06-12 19:54:00,
2013-06-12 14:55:00,89.4,74.2,29.67,South,188,4.0,9.0,61,0.00,,,0.00,Wunderground v.1.15,2013-06-12 19:55:00,
2013-06-12 14:56:00,89.5,74.8,29.66,South,188,3.0,9.0,62,0.00,,,0.00,Wunderground v.1.15,2013-06-12 19:56:00,
2013-06-12 14:57:00,89.5,74.8,29.66,South,189,3.0,9.0,62,0.00,,,0.00,Wunderground v.1.15,2013-06-12 19:57:00,
2013-06-12 15:00:00,89.5,74.3,29.67,SSE,159,3.0,3.0,61,0.00,,,0.00,Wunderground v.1.15,2013-06-12 20:00:00,
2013-06-12 15:01:00,89.5,74.8,29.66,SSE,159,3.0,3.0,62,0.00,,,0.00,Wunderground v.1.15,2013-06-12 20:01:00,
2013-06-12 15:02:00,89.5,74.8,29.66,SSE,159,3.0,3.0,62,0.00,,,0.00,Wunderground v.1.15,2013-06-12 20:02:00,
2013-06-12 15:05:00,89.5,75.7,29.66,SSE,161,2.0,3.0,64,0.00,,,0.00,Wunderground v.1.15,2013-06-12 20:05:00,
2013-06-12 15:08:00,89.6,74.9,29.66,South,190,2.0,7.0,62,0.00,,,0.00,Wunderground v.1.15,2013-06-12 20:08:00,
2013-06-12 15:09:00,89.6,74.9,29.66,South,186,2.0,7.0,62,0.00,,,0.00,Wunderground v.1.15,2013-06-12 20:09:00,
2013-06-12 15:10:00,89.7,74.5,29.65,South,184,2.0,5.0,61,0.00,,,0.00,Wunderground v.1.15,2013-06-12 20:10:00,
2013-06-12 15:11:00,89.8,74.6,29.65,SSW,206,3.0,5.0,61,0.00,,,0.00,Wunderground v.1.15,2013-06-12 20:11:00,
2013-06-12 15:13:00,89.9,75.6,29.65,SW,225,3.0,5.0,63,0.00,,,0.00,Wunderground v.1.15,2013-06-12 20:13:00,
2013-06-12 15:16:00,90.1,75.3,29.64,SSW,198,3.0,5.0,62,0.00,,,0.00,Wunderground v.1.15,2013-06-12 20:16:00,
2013-06-12 15:19:00,90.1,74.8,29.64,SSW,198,2.0,5.0,61,0.00,,,0.00,Wunderground v.1.15,2013-06-12 20:19:00,
2013-06-12 15:20:00,90.1,75.3,29.64,SSW,198,2.0,3.0,62,0.00,,,0.00,Wunderground v.1.15,2013-06-12 20:20:00,
2013-06-12 15:21:00,90.1,74.3,29.63,SSW,198,2.0,3.0,60,0.00,,,0.00,Wunderground v.1.15,2013-06-12 20:21:00,
2013-06-12 15:25:00,89.9,74.6,29.62,SSW,198,1.0,3.0,61,0.00,,,0.00,Wunderground v.1.15,2013-06-12 20:25:00,
2013-06-12 15:26:00,89.8,74.6,29.62,SSW,198,1.0,3.0,61,0.00,,,0.00,Wunderground v.1.15,2013-06-12 20:26:00,
2013-06-12 15:29:00,89.6,73.9,29.61,SSW,200,1.0,3.0,60,0.00,,,0.00,Wunderground v.1.15,2013-06-12 20:29:00,
2013-06-12 15:30:00,89.5,74.3,29.62,SSW,200,1.0,2.0,61,0.00,,,0.00,Wunderground v.1.15,2013-06-12 20:30:00,
2013-06-12 15:32:00,89.3,75.0,29.61,SSW,200,0.0,2.0,63,0.00,,,0.00,Wunderground v.1.15,2013-06-12 20:32:00,
2013-06-12 15:36:00,88.9,76.5,29.62,SSW,200,0.0,2.0,67,0.00,,,0.00,Wunderground v.1.15,2013-06-12 20:36:00,
2013-06-12 15:38:00,88.6,76.7,29.63,SSW,201,1.0,2.0,68,0.00,,,0.00,Wunderground v.1.15,2013-06-12 20:38:00,
2013-06-12 15:39:00,88.4,75.1,29.64,SW,220,1.0,4.0,65,0.00,,,0.00,Wunderground v.1.15,2013-06-12 20:39:00,
2013-06-12 15:41:00,87.7,74.5,29.64,South,173,3.0,17.0,65,0.00,,,0.00,Wunderground v.1.15,2013-06-12 20:41:00,
2013-06-12 15:42:00,87.6,75.3,29.64,South,188,3.0,17.0,67,0.00,,,0.00,Wunderground v.1.15,2013-06-12 20:42:00,
2013-06-12 15:44:00,86.8,75.4,29.63,SSE,161,4.0,17.0,69,0.00,,,0.00,Wunderground v.1.15,2013-06-12 20:44:00,
2013-06-12 15:45:00,86.5,76.0,29.62,South,173,5.0,17.0,71,0.00,,,0.00,Wunderground v.1.15,2013-06-12 20:45:00,
2013-06-12 15:48:00,85.4,75.8,29.62,South,169,6.0,17.0,73,0.00,,,0.00,Wunderground v.1.15,2013-06-12 20:48:00,
2013-06-12 15:49:00,85.0,75.8,29.63,SSW,194,6.0,17.0,74,0.00,,,0.00,Wunderground v.1.15,2013-06-12 20:49:00,
2013-06-12 15:53:00,83.7,75.3,29.62,South,172,5.0,6.0,76,0.00,,,0.00,Wunderground v.1.15,2013-06-12 20:53:00,
2013-06-12 15:54:00,83.4,75.4,29.62,South,173,5.0,6.0,77,0.00,,,0.00,Wunderground v.1.15,2013-06-12 20:54:00,
2013-06-12 15:56:00,82.7,75.5,29.62,South,171,5.0,6.0,79,0.00,,,0.00,Wunderground v.1.15,2013-06-12 20:56:00,
2013-06-12 15:57:00,82.6,75.4,29.62,SSE,157,5.0,6.0,79,0.00,,,0.00,Wunderground v.1.15,2013-06-12 20:57:00,
2013-06-12 15:59:00,82.2,75.0,29.61,SSE,161,5.0,6.0,79,0.00,,,0.00,Wunderground v.1.15,2013-06-12 20:59:00,
2013-06-12 16:00:00,82.1,75.3,29.61,SSE,161,5.0,5.0,80,0.00,,,0.00,Wunderground v.1.15,2013-06-12 21:00:00,
2013-06-12 16:03:00,81.7,74.9,29.61,SE,142,4.0,5.0,80,0.00,,,0.00,Wunderground v.1.15,2013-06-12 21:03:00,
2013-06-12 16:04:00,81.6,74.8,29.61,SE,141,4.0,5.0,80,0.00,,,0.00,Wunderground v.1.15,2013-06-12 21:04:00,
2013-06-12 16:05:00,81.5,74.7,29.61,SE,141,3.0,5.0,80,0.00,,,0.00,Wunderground v.1.15,2013-06-12 21:05:00,
2013-06-12 16:08:00,81.3,74.9,29.61,SE,146,2.0,5.0,81,0.00,,,0.00,Wunderground v.1.15,2013-06-12 21:08:00,
2013-06-12 16:09:00,81.2,74.4,29.61,SE,146,2.0,5.0,80,0.00,,,0.00,Wunderground v.1.15,2013-06-12 21:09:00,
2013-06-12 16:11:00,81.1,74.3,29.60,ESE,113,1.0,4.0,80,0.00,,,0.00,Wunderground v.1.15,2013-06-12 21:11:00,
2013-06-12 16:12:00,81.1,74.3,29.60,ESE,113,1.0,4.0,80,0.00,,,0.00,Wunderground v.1.15,2013-06-12 21:12:00,
2013-06-12 16:13:00,81.0,74.2,29.60,ESE,123,1.0,4.0,80,0.00,,,0.00,Wunderground v.1.15,2013-06-12 21:13:00,
2013-06-12 16:16:00,80.9,74.5,29.60,SE,128,2.0,4.0,81,0.00,,,0.00,Wunderground v.1.15,2013-06-12 21:16:00,
2013-06-12 16:17:00,80.9,74.5,29.60,ESE,115,2.0,4.0,81,0.00,,,0.00,Wunderground v.1.15,2013-06-12 21:17:00,
2013-06-12 16:19:00,80.9,74.5,29.60,ESE,115,2.0,4.0,81,0.00,,,0.00,Wunderground v.1.15,2013-06-12 21:19:00,
2013-06-12 16:21:00,80.8,74.4,29.60,ESE,114,2.0,2.0,81,0.00,,,0.00,Wunderground v.1.15,2013-06-12 21:21:00,
2013-06-12 16:22:00,80.8,74.4,29.60,ESE,114,2.0,3.0,81,0.00,,,0.00,Wunderground v.1.15,2013-06-12 21:22:00,
2013-06-12 16:26:00,81.0,75.3,29.60,SE,134,2.0,5.0,83,0.00,,,0.00,Wunderground v.1.15,2013-06-12 21:26:00,
2013-06-12 16:27:00,81.0,75.3,29.60,SE,134,2.0,5.0,83,0.00,,,0.00,Wunderground v.1.15,2013-06-12 21:27:00,
2013-06-12 16:29:00,81.1,74.7,29.60,East,89,2.0,5.0,81,0.00,,,0.00,Wunderground v.1.15,2013-06-12 21:29:00,
2013-06-12 16:32:00,81.3,74.9,29.60,ESE,112,2.0,3.0,81,0.00,,,0.00,Wunderground v.1.15,2013-06-12 21:32:00,
2013-06-12 16:33:00,81.3,74.9,29.60,ESE,113,2.0,4.0,81,0.00,,,0.00,Wunderground v.1.15,2013-06-12 21:33:00,
2013-06-12 16:34:00,81.4,75.0,29.60,ESE,113,2.0,4.0,81,0.00,,,0.00,Wunderground v.1.15,2013-06-12 21:34:00,
2013-06-12 16:37:00,81.5,74.7,29.60,ESE,111,2.0,4.0,80,0.00,,,0.00,Wunderground v.1.15,2013-06-12 21:37:00,
2013-06-12 16:40:00,81.5,73.6,29.59,SE,128,2.0,4.0,77,0.00,,,0.00,Wunderground v.1.15,2013-06-12 21:40:00,
2013-06-12 16:41:00,81.5,73.6,29.59,SE,131,2.0,4.0,77,0.00,,,0.00,Wunderground v.1.15,2013-06-12 21:41:00,
2013-06-12 16:42:00,81.5,73.6,29.59,SE,126,2.0,4.0,77,0.00,,,0.00,Wunderground v.1.15,2013-06-12 21:42:00,
2013-06-12 16:45:00,81.4,73.5,29.59,SE,127,2.0,4.0,77,0.00,,,0.00,Wunderground v.1.15,2013-06-12 21:45:00,
2013-06-12 16:47:00,81.3,73.8,29.58,SE,127,2.0,4.0,78,0.00,,,0.00,Wunderground v.1.15,2013-06-12 21:47:00,
2013-06-12 16:49:00,81.2,73.7,29.58,SE,127,2.0,4.0,78,0.00,,,0.00,Wunderground v.1.15,2013-06-12 21:49:00,
2013-06-12 16:51:00,81.1,73.6,29.58,SE,126,1.0,2.0,78,0.00,,,0.00,Wunderground v.1.15,2013-06-12 21:51:00,
2013-06-12 16:52:00,81.1,73.6,29.57,SE,126,1.0,2.0,78,0.00,,,0.00,Wunderground v.1.15,2013-06-12 21:52:00,
2013-06-12 16:53:00,81.0,73.5,29.57,SE,126,1.0,4.0,78,0.00,,,0.00,Wunderground v.1.15,2013-06-12 21:53:00,
2013-06-12 16:54:00,81.0,73.5,29.57,SE,124,1.0,4.0,78,0.00,,,0.00,Wunderground v.1.15,2013-06-12 21:54:00,
2013-06-12 16:58:00,80.7,73.2,29.58,SE,137,1.0,4.0,78,0.00,,,0.00,Wunderground v.1.15,2013-06-12 21:58:00,
2013-06-12 16:59:00,80.6,72.7,29.58,SE,132,1.0,4.0,77,0.00,,,0.00,Wunderground v.1.15,2013-06-12 21:59:00,
2013-06-12 17:00:00,80.5,72.6,29.57,East,93,2.0,2.0,77,0.00,,,0.00,Wunderground v.1.15,2013-06-12 22:00:00,
2013-06-12 17:02:00,80.3,72.8,29.58,East,93,2.0,2.0,78,0.00,,,0.00,Wunderground v.1.15,2013-06-12 22:02:00,
2013-06-12 17:03:00,80.3,72.8,29.57,East,97,2.0,4.0,78,0.00,,,0.00,Wunderground v.1.15,2013-06-12 22:03:00,
2013-06-12 17:06:00,80.0,72.5,29.57,East,94,2.0,4.0,78,0.00,,,0.00,Wunderground v.1.15,2013-06-12 22:06:00,
2013-06-12 17:09:00,79.9,72.4,29.57,East,94,1.0,4.0,78,0.00,,,0.00,Wunderground v.1.15,2013-06-12 22:09:00,
2013-06-12 17:10:00,79.8,72.7,29.57,East,94,1.0,1.0,79,0.00,,,0.00,Wunderground v.1.15,2013-06-12 22:10:00,
2013-06-12 17:11:00,79.7,72.6,29.57,East,94,1.0,1.0,79,0.00,,,0.00,Wunderground v.1.15,2013-06-12 22:11:00,
2013-06-12 17:12:00,79.7,72.2,29.57,East,94,1.0,1.0,78,0.00,,,0.00,Wunderground v.1.15,2013-06-12 22:12:00,
2013-06-12 17:13:00,79.6,72.1,29.57,East,94,1.0,1.0,78,0.00,,,0.00,Wunderground v.1.15,2013-06-12 22:13:00,
2013-06-12 17:17:00,79.5,72.4,29.57,East,94,0.0,1.0,79,0.00,,,0.00,Wunderground v.1.15,2013-06-12 22:17:00,
2013-06-12 17:18:00,79.5,72.4,29.57,East,94,0.0,1.0,79,0.00,,,0.00,Wunderground v.1.15,2013-06-12 22:18:00,
2013-06-12 17:19:00,79.4,72.3,29.57,East,94,0.0,1.0,79,0.00,,,0.00,Wunderground v.1.15,2013-06-12 22:19:00,
2013-06-12 17:20:00,79.4,72.3,29.57,East,94,0.0,0.0,79,0.00,,,0.00,Wunderground v.1.15,2013-06-12 22:20:00,
2013-06-12 17:25:00,79.2,72.5,29.57,East,94,0.0,2.0,80,0.00,,,0.00,Wunderground v.1.15,2013-06-12 22:25:00,
2013-06-12 17:26:00,79.2,72.5,29.57,East,92,0.0,2.0,80,0.00,,,0.00,Wunderground v.1.15,2013-06-12 22:26:00,
2013-06-12 17:29:00,79.1,72.8,29.57,East,92,1.0,2.0,81,0.00,,,0.00,Wunderground v.1.15,2013-06-12 22:29:00,
2013-06-12 17:31:00,79.0,73.0,29.57,ESE,105,1.0,6.0,82,0.00,,,0.00,Wunderground v.1.15,2013-06-12 22:31:00,
2013-06-12 17:32:00,79.0,72.7,29.56,ESE,116,1.0,6.0,81,0.00,,,0.00,Wunderground v.1.15,2013-06-12 22:32:00,
2013-06-12 17:34:00,78.8,72.5,29.56,East,96,2.0,7.0,81,0.00,,,0.00,Wunderground v.1.15,2013-06-12 22:34:00,
2013-06-12 17:36:00,78.5,72.5,29.56,SSE,148,3.0,7.0,82,0.00,,,0.00,Wunderground v.1.15,2013-06-12 22:36:00,
2013-06-12 17:39:00,78.2,72.3,29.56,SSE,148,4.0,7.0,82,0.00,,,0.00,Wunderground v.1.15,2013-06-12 22:39:00,
2013-06-12 17:40:00,78.1,72.5,29.56,SE,134,4.0,4.0,83,0.00,,,0.00,Wunderground v.1.15,2013-06-12 22:40:00,
2013-06-12 17:41:00,77.9,72.3,29.55,SE,134,4.0,4.0,83,0.00,,,0.00,Wunderground v.1.15,2013-06-12 22:41:00,
2013-06-12 17:44:00,77.8,72.6,29.56,WSW,246,4.0,4.0,84,0.00,,,0.00,Wunderground v.1.15,2013-06-12 22:44:00,
2013-06-12 17:47:00,77.6,72.4,29.56,SSW,212,4.0,4.0,84,0.00,,,0.00,Wunderground v.1.15,2013-06-12 22:47:00,
2013-06-12 17:50:00,77.4,72.2,29.56,NE,37,3.0,3.0,84,0.00,,,0.00,Wunderground v.1.15,2013-06-12 22:50:00,
2013-06-12 17:51:00,77.3,72.1,29.56,North,5,3.0,4.0,84,0.00,,,0.00,Wunderground v.1.15,2013-06-12 22:51:00,
2013-06-12 17:52:00,77.3,72.1,29.56,North,5,3.0,4.0,84,0.00,,,0.00,Wunderground v.1.15,2013-06-12 22:52:00,
2013-06-12 17:53:00,77.2,72.0,29.57,North,5,3.0,4.0,84,0.00,,,0.00,Wunderground v.1.15,2013-06-12 22:53:00,
2013-06-12 17:54:00,77.2,72.0,29.57,NNE,16,2.0,4.0,84,0.00,,,0.00,Wunderground v.1.15,2013-06-12 22:54:00,
2013-06-12 17:57:00,77.1,72.2,29.56,NNE,22,1.0,4.0,85,0.00,,,0.00,Wunderground v.1.15,2013-06-12 22:57:00,
2013-06-12 18:00:00,77.1,72.2,29.56,East,93,2.0,3.0,85,0.00,,,0.00,Wunderground v.1.15,2013-06-12 23:00:00,
2013-06-12 18:01:00,77.0,71.8,29.56,East,94,2.0,3.0,84,0.00,,,0.00,Wunderground v.1.15,2013-06-12 23:01:00,
2013-06-12 18:02:00,77.0,71.8,29.56,East,94,2.0,3.0,84,0.00,,,0.00,Wunderground v.1.15,2013-06-12 23:02:00,
2013-06-12 18:03:00,77.0,71.8,29.56,East,95,1.0,3.0,84,0.00,,,0.00,Wunderground v.1.15,2013-06-12 23:03:00,
2013-06-12 18:07:00,76.9,71.7,29.56,East,87,2.0,4.0,84,0.00,,,0.00,Wunderground v.1.15,2013-06-12 23:07:00,
2013-06-12 18:10:00,76.9,71.3,29.56,East,81,2.0,2.0,83,0.00,,,0.00,Wunderground v.1.15,2013-06-12 23:10:00,
2013-06-12 18:13:00,76.8,71.2,29.56,ESE,103,2.0,4.0,83,0.00,,,0.00,Wunderground v.1.15,2013-06-12 23:13:00,
2013-06-12 18:14:00,76.7,71.1,29.56,ESE,103,2.0,4.0,83,0.00,,,0.00,Wunderground v.1.15,2013-06-12 23:14:00,
2013-06-12 18:15:00,76.7,71.1,29.56,East,101,2.0,4.0,83,0.00,,,0.00,Wunderground v.1.15,2013-06-12 23:15:00,
2013-06-12 18:17:00,76.7,71.1,29.56,SSE,148,2.0,4.0,83,0.00,,,0.00,Wunderground v.1.15,2013-06-12 23:17:00,
2013-06-12 18:20:00,76.6,71.0,29.56,SSE,147,1.0,2.0,83,0.00,,,0.00,Wunderground v.1.15,2013-06-12 23:20:00,
2013-06-12 18:21:00,76.6,71.0,29.56,SE,145,1.0,2.0,83,0.00,,,0.00,Wunderground v.1.15,2013-06-12 23:21:00,
2013-06-12 18:22:00,76.6,71.0,29.56,SE,145,1.0,2.0,83,0.00,,,0.00,Wunderground v.1.15,2013-06-12 23:22:00,
2013-06-12 18:23:00,76.6,71.4,29.56,SE,145,1.0,2.0,84,0.00,,,0.00,Wunderground v.1.15,2013-06-12 23:23:00,
2013-06-12 18:25:00,76.5,71.3,29.56,SE,145,1.0,2.0,84,0.00,,,0.00,Wunderground v.1.15,2013-06-12 23:25:00,
2013-06-12 18:28:00,76.5,71.3,29.56,ESE,123,1.0,5.0,84,0.00,,,0.00,Wunderground v.1.15,2013-06-12 23:28:00,
2013-06-12 18:29:00,76.5,71.3,29.56,ESE,123,2.0,5.0,84,0.00,,,0.00,Wunderground v.1.15,2013-06-12 23:29:00,
2013-06-12 18:30:00,76.4,71.2,29.56,ESE,117,2.0,3.0,84,0.00,,,0.00,Wunderground v.1.15,2013-06-12 23:30:00,
2013-06-12 18:31:00,76.4,71.2,29.56,ESE,117,2.0,3.0,84,0.00,,,0.00,Wunderground v.1.15,2013-06-12 23:31:00,
2013-06-12 18:34:00,76.4,71.2,29.56,ESE,115,2.0,3.0,84,0.00,,,0.00,Wunderground v.1.15,2013-06-12 23:34:00,
2013-06-12 18:35:00,76.3,71.1,29.56,ESE,115,2.0,3.0,84,0.00,,,0.00,Wunderground v.1.15,2013-06-12 23:35:00,
2013-06-12 18:38:00,76.2,71.0,29.55,ESE,103,2.0,5.0,84,0.00,,,0.00,Wunderground v.1.15,2013-06-12 23:38:00,
2013-06-12 18:41:00,76.0,70.8,29.55,East,101,2.0,3.0,84,0.00,,,0.00,Wunderground v.1.15,2013-06-12 23:41:00,
2013-06-12 18:46:00,75.8,70.6,29.55,East,82,3.0,4.0,84,0.00,,,0.00,Wunderground v.1.15,2013-06-12 23:46:00,
2013-06-12 18:47:00,75.7,70.5,29.56,East,92,3.0,4.0,84,0.00,,,0.00,Wunderground v.1.15,2013-06-12 23:47:00,
2013-06-12 18:48:00,75.7,70.5,29.56,South,178,3.0,4.0,84,0.00,,,0.00,Wunderground v.1.15,2013-06-12 23:48:00,
2013-06-12 18:49:00,75.6,70.4,29.55,South,178,3.0,4.0,84,0.00,,,0.00,Wunderground v.1.15,2013-06-12 23:49:00,
2013-06-12 18:53:00,75.6,70.4,29.56,ENE,71,3.0,5.0,84,0.00,,,0.00,Wunderground v.1.15,2013-06-12 23:53:00,
2013-06-12 18:54:00,75.5,70.3,29.56,ENE,71,3.0,5.0,84,0.00,,,0.00,Wunderground v.1.15,2013-06-12 23:54:00,
2013-06-12 18:57:00,75.5,70.3,29.55,East,98,2.0,5.0,84,0.00,,,0.00,Wunderground v.1.15,2013-06-12 23:57:00,
2013-06-12 18:59:00,75.4,70.2,29.56,ESE,113,2.0,5.0,84,0.00,,,0.00,Wunderground v.1.15,2013-06-12 23:59:00,
2013-06-12 19:00:00,75.4,70.2,29.56,ESE,113,3.0,3.0,84,0.00,,,0.00,Wunderground v.1.15,2013-06-13 00:00:00,
2013-06-12 19:04:00,75.3,70.1,29.56,ESE,111,2.0,3.0,84,0.00,,,0.00,Wunderground v.1.15,2013-06-13 00:04:00,
2013-06-12 19:05:00,75.3,70.1,29.56,ESE,109,2.0,3.0,84,0.00,,,0.00,Wunderground v.1.15,2013-06-13 00:05:00,
2013-06-12 19:07:00,75.2,70.0,29.56,ESE,109,2.0,3.0,84,0.00,,,0.00,Wunderground v.1.15,2013-06-13 00:07:00,
2013-06-12 19:09:00,75.1,69.9,29.56,ESE,109,1.0,3.0,84,0.00,,,0.00,Wunderground v.1.15,2013-06-13 00:09:00,
2013-06-12 19:11:00,75.0,69.8,29.56,ESE,109,1.0,1.0,84,0.00,,,0.00,Wunderground v.1.15,2013-06-13 00:11:00,
2013-06-12 19:13:00,75.0,70.2,29.55,ESE,109,1.0,1.0,85,0.00,,,0.00,Wunderground v.1.15,2013-06-13 00:13:00,
2013-06-12 19:16:00,74.9,70.1,29.55,ESE,116,1.0,4.0,85,0.00,,,0.00,Wunderground v.1.15,2013-06-13 00:16:00,
2013-06-12 19:17:00,74.8,70.0,29.56,ESE,116,2.0,4.0,85,0.00,,,0.00,Wunderground v.1.15,2013-06-13 00:17:00,
2013-06-12 19:18:00,74.8,70.0,29.56,NE,34,2.0,4.0,85,0.00,,,0.00,Wunderground v.1.15,2013-06-13 00:18:00,
2013-06-12 19:21:00,74.6,69.8,29.56,ENE,73,2.0,3.0,85,0.00,,,0.00,Wunderground v.1.15,2013-06-13 00:21:00,
2013-06-12 19:22:00,74.6,69.8,29.56,ENE,73,2.0,3.0,85,0.00,,,0.00,Wunderground v.1.15,2013-06-13 00:22:00,
2013-06-12 19:24:00,74.5,69.7,29.56,ENE,73,2.0,4.0,85,0.00,,,0.00,Wunderground v.1.15,2013-06-13 00:24:00,
2013-06-12 19:26:00,74.4,69.6,29.56,ENE,69,2.0,4.0,85,0.00,,,0.00,Wunderground v.1.15,2013-06-13 00:26:00,
2013-06-12 19:27:00,74.4,69.6,29.56,ENE,67,2.0,4.0,85,0.00,,,0.00,Wunderground v.1.15,2013-06-13 00:27:00,
2013-06-12 19:28:00,74.4,69.6,29.56,ENE,67,2.0,4.0,85,0.00,,,0.00,Wunderground v.1.15,2013-06-13 00:28:00,
2013-06-12 19:29:00,74.3,69.5,29.56,ENE,67,1.0,4.0,85,0.00,,,0.00,Wunderground v.1.15,2013-06-13 00:29:00,
2013-06-12 19:33:00,74.2,69.4,29.56,NE,37,2.0,4.0,85,0.00,,,0.00,Wunderground v.1.15,2013-06-13 00:33:00,
2013-06-12 19:35:00,74.0,69.2,29.56,NE,53,2.0,4.0,85,0.00,,,0.00,Wunderground v.1.15,2013-06-13 00:35:00,
2013-06-12 19:36:00,74.0,68.9,29.55,NE,38,2.0,4.0,84,0.00,,,0.00,Wunderground v.1.15,2013-06-13 00:36:00,
2013-06-12 19:38:00,73.9,69.1,29.55,NE,38,2.0,4.0,85,0.00,,,0.00,Wunderground v.1.15,2013-06-13 00:38:00,
2013-06-12 19:41:00,73.8,68.7,29.55,NE,55,3.0,5.0,84,0.00,,,0.00,Wunderground v.1.15,2013-06-13 00:41:00,
2013-06-12 19:42:00,73.8,68.7,29.55,NE,55,2.0,5.0,84,0.00,,,0.00,Wunderground v.1.15,2013-06-13 00:42:00,
2013-06-12 19:44:00,73.7,68.6,29.55,NE,56,2.0,5.0,84,0.00,,,0.00,Wunderground v.1.15,2013-06-13 00:44:00,
2013-06-12 19:46:00,73.6,68.1,29.55,NE,56,2.0,5.0,83,0.00,,,0.00,Wunderground v.1.15,2013-06-13 00:46:00,
2013-06-12 19:49:00,73.5,68.0,29.55,NE,39,2.0,5.0,83,0.00,,,0.00,Wunderground v.1.15,2013-06-13 00:49:00,
2013-06-12 19:50:00,73.4,67.9,29.55,NE,46,2.0,4.0,83,0.00,,,0.00,Wunderground v.1.15,2013-06-13 00:50:00,
2013-06-12 19:51:00,73.3,67.8,29.55,NE,46,1.0,4.0,83,0.00,,,0.00,Wunderground v.1.15,2013-06-13 00:51:00,
2013-06-12 19:54:00,73.2,67.7,29.55,ENE,61,2.0,4.0,83,0.00,,,0.00,Wunderground v.1.15,2013-06-13 00:54:00,
2013-06-12 19:55:00,73.1,68.0,29.55,ENE,61,2.0,4.0,84,0.00,,,0.00,Wunderground v.1.15,2013-06-13 00:55:00,
2013-06-12 19:57:00,73.1,68.0,29.56,ENE,71,2.0,4.0,84,0.00,,,0.00,Wunderground v.1.15,2013-06-13 00:57:00,
2013-06-12 19:58:00,73.0,67.9,29.55,ENE,71,2.0,4.0,84,0.00,,,0.00,Wunderground v.1.15,2013-06-13 00:58:00,
2013-06-12 19:59:00,73.0,67.9,29.55,ENE,71,2.0,4.0,84,0.00,,,0.00,Wunderground v.1.15,2013-06-13 00:59:00,
2013-06-12 20:02:00,72.8,67.7,29.55,East,88,2.0,4.0,84,0.00,,,0.00,Wunderground v.1.15,2013-06-13 01:02:00,
2013-06-12 20:03:00,72.8,67.7,29.55,East,88,2.0,4.0,84,0.00,,,0.00,Wunderground v.1.15,2013-06-13 01:03:00,
2013-06-12 20:04:00,72.8,67.7,29.55,East,97,2.0,4.0,84,0.00,,,0.00,Wunderground v.1.15,2013-06-13 01:04:00,
2013-06-12 20:07:00,72.6,67.8,29.55,ESE,111,2.0,4.0,85,0.00,,,0.00,Wunderground v.1.15,2013-06-13 01:07:00,
2013-06-12 20:09:00,72.5,67.7,29.55,ESE,107,3.0,4.0,85,0.00,,,0.00,Wunderground v.1.15,2013-06-13 01:09:00,
2013-06-12 20:10:00,72.5,68.1,29.55,SE,143,3.0,3.0,86,0.00,,,0.00,Wunderground v.1.15,2013-06-13 01:10:00,
2013-06-12 20:12:00,72.3,67.9,29.57,SE,145,2.0,5.0,86,0.00,,,0.00,Wunderground v.1.15,2013-06-13 01:12:00,
2013-06-12 20:13:00,72.3,67.9,29.59,NNW,336,3.0,9.0,86,0.00,,,0.00,Wunderground v.1.15,2013-06-13 01:13:00,
2013-06-12 20:15:00,72.2,68.1,29.60,NW,321,4.0,10.0,87,0.00,,,0.00,Wunderground v.1.15,2013-06-13 01:15:00,
2013-06-12 20:16:00,72.2,68.1,29.58,NNW,328,4.0,10.0,87,0.00,,,0.00,Wunderground v.1.15,2013-06-13 01:16:00,
2013-06-12 20:20:00,72.0,67.9,29.58,NNE,28,4.0,4.0,87,0.00,,,0.01,Wunderground v.1.15,2013-06-13 01:20:00,
2013-06-12 20:21:00,71.9,67.8,29.58,NNE,26,4.0,4.0,87,0.00,,,0.01,Wunderground v.1.15,2013-06-13 01:21:00,
2013-06-12 20:22:00,71.9,68.2,29.58,NNE,26,4.0,4.0,88,0.00,,,0.01,Wunderground v.1.15,2013-06-13 01:22:00,
2013-06-12 20:26:00,71.6,67.9,29.56,NNE,28,2.0,4.0,88,0.00,,,0.01,Wunderground v.1.15,2013-06-13 01:26:00,
2013-06-12 20:29:00,71.4,67.7,29.56,NNE,32,1.0,4.0,88,0.00,,,0.01,Wunderground v.1.15,2013-06-13 01:29:00,
2013-06-12 20:30:00,71.3,67.6,29.56,ENE,63,1.0,1.0,88,0.00,,,0.01,Wunderground v.1.15,2013-06-13 01:30:00,
2013-06-12 20:31:00,71.3,67.6,29.56,ENE,63,1.0,2.0,88,0.00,,,0.01,Wunderground v.1.15,2013-06-13 01:31:00,
2013-06-12 20:34:00,71.1,67.7,29.56,ENE,63,1.0,2.0,89,0.00,,,0.01,Wunderground v.1.15,2013-06-13 01:34:00,
2013-06-12 20:37:00,70.9,67.5,29.56,ENE,63,1.0,2.0,89,0.00,,,0.01,Wunderground v.1.15,2013-06-13 01:37:00,
2013-06-12 20:38:00,70.9,67.5,29.56,ENE,63,1.0,2.0,89,0.00,,,0.01,Wunderground v.1.15,2013-06-13 01:38:00,
2013-06-12 20:40:00,70.8,67.7,29.57,ENE,63,1.0,1.0,90,0.00,,,0.01,Wunderground v.1.15,2013-06-13 01:40:00,
2013-06-12 20:42:00,70.7,67.6,29.57,ENE,63,0.0,1.0,90,0.00,,,0.01,Wunderground v.1.15,2013-06-13 01:42:00,
2013-06-12 20:43:00,70.7,67.6,29.57,ENE,63,0.0,1.0,90,0.00,,,0.01,Wunderground v.1.15,2013-06-13 01:43:00,
2013-06-12 20:46:00,70.6,67.5,29.57,ENE,63,0.0,1.0,90,0.00,,,0.01,Wunderground v.1.15,2013-06-13 01:46:00,
2013-06-12 20:48:00,70.6,67.8,29.57,ENE,63,0.0,2.0,91,0.00,,,0.01,Wunderground v.1.15,2013-06-13 01:48:00,
2013-06-12 20:49:00,70.6,67.8,29.58,NNE,26,0.0,8.0,91,0.00,,,0.01,Wunderground v.1.15,2013-06-13 01:49:00,
2013-06-12 20:50:00,70.6,67.8,29.58,NNW,346,1.0,2.0,91,0.00,,,0.01,Wunderground v.1.15,2013-06-13 01:50:00,
2013-06-12 20:52:00,70.6,67.8,29.57,NNE,14,2.0,5.0,91,0.00,,,0.01,Wunderground v.1.15,2013-06-13 01:52:00,
2013-06-12 20:55:00,70.4,67.6,29.56,NE,36,2.0,5.0,91,0.00,,,0.01,Wunderground v.1.15,2013-06-13 01:55:00,
2013-06-12 20:56:00,70.4,67.6,29.56,North,360,3.0,5.0,91,0.00,,,0.01,Wunderground v.1.15,2013-06-13 01:56:00,
2013-06-12 20:57:00,70.4,67.6,29.57,NW,325,3.0,5.0,91,0.00,,,0.01,Wunderground v.1.15,2013-06-13 01:57:00,
2013-06-12 20:59:00,70.4,67.6,29.57,NNW,327,3.0,5.0,91,0.00,,,0.01,Wunderground v.1.15,2013-06-13 01:59:00,
2013-06-12 21:00:00,70.4,68.0,29.58,NNW,329,3.0,3.0,92,0.00,,,0.01,Wunderground v.1.15,2013-06-13 02:00:00,
2013-06-12 21:02:00,70.4,68.0,29.58,NE,36,3.0,3.0,92,0.00,,,0.01,Wunderground v.1.15,2013-06-13 02:02:00,
2013-06-12 21:03:00,70.4,68.0,29.58,NE,36,3.0,4.0,92,0.00,,,0.01,Wunderground v.1.15,2013-06-13 02:03:00,
2013-06-12 21:05:00,70.4,68.0,29.58,NNW,339,3.0,4.0,92,0.00,,,0.01,Wunderground v.1.15,2013-06-13 02:05:00,
2013-06-12 21:08:00,70.4,68.0,29.58,NNE,13,3.0,4.0,92,0.00,,,0.01,Wunderground v.1.15,2013-06-13 02:08:00,
2013-06-12 21:09:00,70.4,68.0,29.58,NNE,12,3.0,4.0,92,0.00,,,0.01,Wunderground v.1.15,2013-06-13 02:09:00,
2013-06-12 21:10:00,70.4,68.0,29.58,NNE,12,3.0,3.0,92,0.00,,,0.01,Wunderground v.1.15,2013-06-13 02:10:00,
2013-06-12 21:13:00,70.4,68.0,29.59,NNE,12,2.0,3.0,92,0.00,,,0.01,Wunderground v.1.15,2013-06-13 02:13:00,
2013-06-12 21:14:00,70.3,67.9,29.59,NNE,26,1.0,4.0,92,0.00,,,0.01,Wunderground v.1.15,2013-06-13 02:14:00,
2013-06-12 21:15:00,70.3,67.9,29.59,NNE,26,1.0,4.0,92,0.00,,,0.01,Wunderground v.1.15,2013-06-13 02:15:00,
2013-06-12 21:17:00,70.3,67.9,29.58,NNE,32,2.0,4.0,92,0.00,,,0.01,Wunderground v.1.15,2013-06-13 02:17:00,
2013-06-12 21:20:00,70.2,67.8,29.58,NE,35,2.0,5.0,92,0.00,,,0.01,Wunderground v.1.15,2013-06-13 02:20:00,
2013-06-12 21:22:00,70.1,67.7,29.58,NE,40,3.0,5.0,92,0.00,,,0.01,Wunderground v.1.15,2013-06-13 02:22:00,
2013-06-12 21:25:00,70.0,67.6,29.58,NE,47,3.0,5.0,92,0.00,,,0.01,Wunderground v.1.15,2013-06-13 02:25:00,
2013-06-12 21:26:00,70.0,67.6,29.58,NE,46,3.0,5.0,92,0.00,,,0.01,Wunderground v.1.15,2013-06-13 02:26:00,
2013-06-12 21:27:00,70.0,67.6,29.58,NE,38,3.0,5.0,92,0.00,,,0.01,Wunderground v.1.15,2013-06-13 02:27:00,
2013-06-12 21:29:00,69.9,67.5,29.58,NNE,30,3.0,5.0,92,0.00,,,0.01,Wunderground v.1.15,2013-06-13 02:29:00,
2013-06-12 21:32:00,69.9,67.5,29.58,NE,43,2.0,7.0,92,0.00,,,0.01,Wunderground v.1.15,2013-06-13 02:32:00,
2013-06-12 21:34:00,69.8,67.4,29.58,NE,38,3.0,7.0,92,0.00,,,0.01,Wunderground v.1.15,2013-06-13 02:34:00,
2013-06-12 21:36:00,69.8,67.4,29.58,ENE,69,3.0,7.0,92,0.00,,,0.01,Wunderground v.1.15,2013-06-13 02:36:00,
2013-06-12 21:37:00,69.7,67.3,29.58,ENE,69,3.0,7.0,92,0.00,,,0.01,Wunderground v.1.15,2013-06-13 02:37:00,
2013-06-12 21:38:00,69.7,67.3,29.58,ENE,71,3.0,7.0,92,0.00,,,0.01,Wunderground v.1.15,2013-06-13 02:38:00,
2013-06-12 21:39:00,69.7,67.3,29.58,ENE,71,3.0,7.0,92,0.00,,,0.01,Wunderground v.1.15,2013-06-13 02:39:00,
2013-06-12 21:42:00,69.7,67.3,29.58,East,83,4.0,4.0,92,0.00,,,0.01,Wunderground v.1.15,2013-06-13 02:42:00,
2013-06-12 21:43:00,69.6,67.2,29.58,East,84,3.0,4.0,92,0.00,,,0.01,Wunderground v.1.15,2013-06-13 02:43:00,
2013-06-12 21:44:00,69.6,67.2,29.58,East,79,3.0,4.0,92,0.00,,,0.01,Wunderground v.1.15,2013-06-13 02:44:00,
2013-06-12 21:45:00,69.6,67.2,29.59,ENE,64,3.0,4.0,92,0.00,,,0.01,Wunderground v.1.15,2013-06-13 02:45:00,
2013-06-12 21:49:00,69.6,67.5,29.59,NE,41,3.0,4.0,93,0.00,,,0.01,Wunderground v.1.15,2013-06-13 02:49:00,
2013-06-12 21:50:00,69.6,67.5,29.59,East,84,3.0,11.0,93,0.00,,,0.01,Wunderground v.1.15,2013-06-13 02:50:00,
2013-06-12 21:51:00,69.6,67.5,29.59,NNE,32,3.0,11.0,93,0.00,,,0.01,Wunderground v.1.15,2013-06-13 02:51:00,
2013-06-12 21:53:00,69.6,67.5,29.59,NNE,14,4.0,11.0,93,0.00,,,0.01,Wunderground v.1.15,2013-06-13 02:53:00,
2013-06-12 21:55:00,69.5,67.4,29.59,NNE,19,6.0,11.0,93,0.00,,,0.01,Wunderground v.1.15,2013-06-13 02:55:00,
2013-06-12 21:58:00,69.5,67.4,29.60,North,10,7.0,11.0,93,0.90,,,0.06,Wunderground v.1.15,2013-06-13 02:58:00,
2013-06-12 22:00:00,69.5,67.4,29.61,North,360,8.0,8.0,93,1.71,,,0.12,Wunderground v.1.15,2013-06-13 03:00:00,
2013-06-12 22:03:00,69.4,67.3,29.61,NNE,32,7.0,9.0,93,2.14,,,0.24,Wunderground v.1.15,2013-06-13 03:03:00,
2013-06-12 22:06:00,69.2,67.1,29.62,NNE,22,8.0,9.0,93,3.22,,,0.38,Wunderground v.1.15,2013-06-13 03:06:00,
2013-06-12 22:07:00,69.2,67.1,29.63,NE,41,7.0,9.0,93,2.98,,,0.40,Wunderground v.1.15,2013-06-13 03:07:00,
2013-06-12 22:09:00,69.0,66.9,29.63,ENE,74,7.0,9.0,93,1.66,,,0.47,Wunderground v.1.15,2013-06-13 03:09:00,
2013-06-12 22:12:00,68.9,66.8,29.62,East,87,6.0,6.0,93,0.44,,,0.49,Wunderground v.1.15,2013-06-13 03:12:00,
2013-06-12 22:14:00,68.8,66.7,29.62,NE,42,4.0,6.0,93,1.08,,,0.54,Wunderground v.1.15,2013-06-13 03:14:00,
2013-06-12 22:15:00,68.8,67.0,29.61,NE,53,4.0,6.0,94,0.52,,,0.54,Wunderground v.1.15,2013-06-13 03:15:00,
2013-06-12 22:17:00,68.7,66.9,29.61,NE,44,3.0,6.0,94,0.27,,,0.55,Wunderground v.1.15,2013-06-13 03:17:00,
2013-06-12 22:20:00,68.6,66.5,29.63,NE,44,2.0,2.0,93,0.12,,,0.55,Wunderground v.1.15,2013-06-13 03:20:00,
2013-06-12 22:21:00,68.6,66.8,29.63,NE,44,2.0,2.0,94,0.09,,,0.55,Wunderground v.1.15,2013-06-13 03:21:00,
2013-06-12 22:23:00,68.6,66.8,29.62,NE,45,1.0,3.0,94,0.08,,,0.55,Wunderground v.1.15,2013-06-13 03:23:00,
2013-06-12 22:25:00,68.5,66.7,29.63,NE,54,1.0,3.0,94,0.06,,,0.55,Wunderground v.1.15,2013-06-13 03:25:00,
2013-06-12 22:26:00,68.5,66.7,29.63,NE,47,1.0,3.0,94,0.05,,,0.55,Wunderground v.1.15,2013-06-13 03:26:00,
2013-06-12 22:28:00,68.5,66.7,29.64,NE,45,1.0,3.0,94,0.05,,,0.55,Wunderground v.1.15,2013-06-13 03:28:00,
2013-06-12 22:30:00,68.5,66.7,29.65,NE,45,1.0,3.0,94,0.04,,,0.55,Wunderground v.1.15,2013-06-13 03:30:00,
2013-06-12 22:31:00,68.5,66.7,29.66,NE,39,1.0,4.0,94,0.04,,,0.55,Wunderground v.1.15,2013-06-13 03:31:00,
2013-06-12 22:32:00,68.4,66.6,29.66,NE,39,2.0,4.0,94,0.04,,,0.56,Wunderground v.1.15,2013-06-13 03:32:00,
2013-06-12 22:35:00,68.4,66.6,29.66,ENE,57,2.0,4.0,94,0.04,,,0.56,Wunderground v.1.15,2013-06-13 03:35:00,
2013-06-12 22:39:00,68.4,66.6,29.66,NNE,19,3.0,7.0,94,0.04,,,0.56,Wunderground v.1.15,2013-06-13 03:39:00,
2013-06-12 22:41:00,68.4,66.6,29.66,NNE,29,3.0,4.0,94,0.04,,,0.56,Wunderground v.1.15,2013-06-13 03:41:00,
2013-06-12 22:42:00,68.4,66.6,29.65,NNE,26,3.0,4.0,94,0.04,,,0.56,Wunderground v.1.15,2013-06-13 03:42:00,
2013-06-12 22:45:00,68.3,66.5,29.65,NNE,17,4.0,5.0,94,0.04,,,0.56,Wunderground v.1.15,2013-06-13 03:45:00,
2013-06-12 22:47:00,68.3,66.5,29.65,NNE,18,4.0,5.0,94,0.04,,,0.56,Wunderground v.1.15,2013-06-13 03:47:00,
2013-06-12 22:48:00,68.2,66.4,29.64,NE,34,4.0,10.0,94,0.04,,,0.56,Wunderground v.1.15,2013-06-13 03:48:00,
2013-06-12 22:49:00,68.1,66.3,29.64,North,355,5.0,10.0,94,0.00,,,0.56,Wunderground v.1.15,2013-06-13 03:49:00,
2013-06-12 22:50:00,68.1,66.3,29.64,ENE,59,5.0,6.0,94,0.00,,,0.56,Wunderground v.1.15,2013-06-13 03:50:00,
2013-06-12 22:53:00,67.8,66.0,29.63,NE,35,6.0,7.0,94,0.00,,,0.56,Wunderground v.1.15,2013-06-13 03:53:00,
2013-06-12 22:54:00,67.7,65.6,29.63,NNW,346,7.0,7.0,93,0.00,,,0.56,Wunderground v.1.15,2013-06-13 03:54:00,
2013-06-12 22:56:00,67.6,65.8,29.63,East,80,7.0,13.0,94,0.00,,,0.56,Wunderground v.1.15,2013-06-13 03:56:00,
2013-06-12 22:58:00,67.3,65.2,29.63,ENE,59,7.0,13.0,93,0.00,,,0.56,Wunderground v.1.15,2013-06-13 03:58:00,
2013-06-12 22:59:00,67.2,65.1,29.63,ENE,71,6.0,13.0,93,0.00,,,0.56,Wunderground v.1.15,2013-06-13 03:59:00,
2013-06-12 23:01:00,67.1,65.0,29.63,NE,56,6.0,6.0,93,0.00,,,0.56,Wunderground v.1.15,2013-06-13 04:01:00,
2013-06-12 23:03:00,67.0,65.2,29.63,ENE,69,5.0,6.0,94,0.00,,,0.56,Wunderground v.1.15,2013-06-13 04:03:00,
2013-06-12 23:04:00,66.9,65.1,29.63,East,80,5.0,6.0,94,0.00,,,0.56,Wunderground v.1.15,2013-06-13 04:04:00,
2013-06-12 23:08:00,66.7,64.9,29.62,NE,54,4.0,6.0,94,0.00,,,0.56,Wunderground v.1.15,2013-06-13 04:08:00,
2013-06-12 23:09:00,66.7,64.9,29.62,ENE,75,4.0,9.0,94,0.00,,,0.56,Wunderground v.1.15,2013-06-13 04:09:00,
2013-06-12 23:12:00,66.5,64.4,29.62,East,85,3.0,4.0,93,0.00,,,0.56,Wunderground v.1.15,2013-06-13 04:12:00,
2013-06-12 23:13:00,66.4,64.3,29.62,ENE,75,3.0,4.0,93,0.00,,,0.56,Wunderground v.1.15,2013-06-13 04:13:00,
2013-06-12 23:16:00,66.2,64.1,29.62,East,81,3.0,4.0,93,0.00,,,0.56,Wunderground v.1.15,2013-06-13 04:16:00,
2013-06-12 23:19:00,66.1,64.3,29.61,East,81,2.0,4.0,94,0.00,,,0.56,Wunderground v.1.15,2013-06-13 04:19:00,
2013-06-12 23:20:00,66.1,64.3,29.61,ESE,113,2.0,5.0,94,0.00,,,0.56,Wunderground v.1.15,2013-06-13 04:20:00,
2013-06-12 23:21:00,66.0,64.2,29.61,ESE,113,2.0,5.0,94,0.00,,,0.56,Wunderground v.1.15,2013-06-13 04:21:00,
2013-06-12 23:23:00,65.9,64.1,29.61,ESE,103,2.0,5.0,94,0.00,,,0.56,Wunderground v.1.15,2013-06-13 04:23:00,
2013-06-12 23:25:00,65.9,64.1,29.61,ESE,103,2.0,5.0,94,0.00,,,0.56,Wunderground v.1.15,2013-06-13 04:25:00,
2013-06-12 23:27:00,65.8,64.0,29.61,ESE,104,2.0,6.0,94,0.00,,,0.56,Wunderground v.1.15,2013-06-13 04:27:00,
2013-06-12 23:28:00,65.8,64.0,29.61,East,98,2.0,6.0,94,0.00,,,0.56,Wunderground v.1.15,2013-06-13 04:28:00,
2013-06-12 23:31:00,65.7,63.9,29.61,ESE,103,2.0,3.0,94,0.00,,,0.56,Wunderground v.1.15,2013-06-13 04:31:00,
2013-06-12 23:32:00,65.6,63.8,29.61,ESE,104,2.0,3.0,94,0.00,,,0.56,Wunderground v.1.15,2013-06-13 04:32:00,
2013-06-12 23:33:00,65.6,63.8,29.61,ESE,104,2.0,3.0,94,0.00,,,0.56,Wunderground v.1.15,2013-06-13 04:33:00,
2013-06-12 23:34:00,65.6,63.8,29.61,ESE,104,2.0,3.0,94,0.00,,,0.56,Wunderground v.1.15,2013-06-13 04:34:00,
2013-06-12 23:38:00,65.5,63.7,29.61,ESE,104,2.0,3.0,94,0.00,,,0.56,Wunderground v.1.15,2013-06-13 04:38:00,
2013-06-12 23:40:00,65.4,63.6,29.61,ESE,105,1.0,4.0,94,0.00,,,0.56,Wunderground v.1.15,2013-06-13 04:40:00,
2013-06-12 23:41:00,65.4,63.6,29.61,East,94,1.0,4.0,94,0.00,,,0.56,Wunderground v.1.15,2013-06-13 04:41:00,
2013-06-12 23:42:00,65.4,63.6,29.61,East,94,1.0,4.0,94,0.00,,,0.56,Wunderground v.1.15,2013-06-13 04:42:00,
2013-06-12 23:43:00,65.3,63.5,29.60,East,94,1.0,4.0,94,0.00,,,0.56,Wunderground v.1.15,2013-06-13 04:43:00,
2013-06-12 23:47:00,65.3,63.5,29.60,East,94,1.0,4.0,94,0.00,,,0.56,Wunderground v.1.15,2013-06-13 04:47:00,
2013-06-12 23:48:00,65.3,63.5,29.61,East,94,1.0,4.0,94,0.00,,,0.56,Wunderground v.1.15,2013-06-13 04:48:00,
2013-06-12 23:49:00,65.2,63.4,29.61,East,94,1.0,4.0,94,0.00,,,0.56,Wunderground v.1.15,2013-06-13 04:49:00,
2013-06-12 23:50:00,65.2,63.4,29.61,East,94,1.0,1.0,94,0.00,,,0.56,Wunderground v.1.15,2013-06-13 04:50:00,
2013-06-12 23:51:00,65.2,63.4,29.61,East,91,1.0,1.0,94,0.00,,,0.56,Wunderground v.1.15,2013-06-13 04:51:00,
2013-06-12 23:54:00,65.1,63.3,29.61,East,91,1.0,1.0,94,0.00,,,0.56,Wunderground v.1.15,2013-06-13 04:54:00,
2013-06-12 23:55:00,65.1,63.3,29.61,East,92,1.0,1.0,94,0.00,,,0.56,Wunderground v.1.15,2013-06-13 04:55:00,
2013-06-12 23:57:00,65.0,63.2,29.61,East,96,1.0,2.0,94,0.00,,,0.56,Wunderground v.1.15,2013-06-13 04:57:00,
2013-06-12 23:58:00,65.0,63.2,29.61,East,96,1.0,2.0,94,0.00,,,0.56,Wunderground v.1.15,2013-06-13 04:58:00,